| time (UTC) | temp F | wind direction | speed MPH | gust MPH | rain 1hr in | rain 24hr in | rain mn in | humidity % | barometer mb |
| 20260510164002 | 72 | 209 | 2.0 | 8.0 | 0.00 | 0.00 | 0.00 | 61 | 1019.9 |
| 20260510163951 | 72 | 211 | 2.0 | 8.0 | 0.00 | 0.00 | 0.00 | 57 | 1019.9 |
| 20260510163929 | 72 | 244 | 2.0 | 8.0 | 0.00 | 0.00 | 0.00 | 55 | 1019.9 |
| 20260510163809 | 72 | 200 | 2.0 | 8.0 | 0.00 | 0.00 | 0.00 | 59 | 1019.9 |
| 20260510163545 | 73 | 190 | 2.0 | 7.0 | 0.00 | 0.00 | 0.00 | 63 | 1019.8 |
| 20260510163453 | 72 | 242 | 2.0 | 7.0 | 0.00 | 0.00 | 0.00 | 67 | 1019.8 |
| 20260510163341 | 72 | 196 | 2.0 | 7.0 | 0.00 | 0.00 | 0.00 | 64 | 1019.8 |
| 20260510163240 | 72 | 192 | 2.0 | 7.0 | 0.00 | 0.00 | 0.00 | 64 | 1019.8 |
| 20260510163211 | 72 | 203 | 2.0 | 7.0 | 0.00 | 0.00 | 0.00 | 64 | 1019.7 |
| 20260510163201 | 72 | 196 | 2.0 | 7.0 | 0.00 | 0.00 | 0.00 | 65 | 1019.8 |
| 20260510162940 | 72 | 239 | 2.0 | 7.0 | 0.00 | 0.00 | 0.00 | 68 | 1019.8 |
| 20260510162840 | 72 | 238 | 2.0 | 7.0 | 0.00 | 0.00 | 0.00 | 64 | 1019.8 |
| 20260510162738 | 72 | 231 | 2.0 | 7.0 | 0.00 | 0.00 | 0.00 | 65 | 1019.8 |
| 20260510162638 | 72 | 243 | 2.0 | 7.0 | 0.00 | 0.00 | 0.00 | 64 | 1019.7 |
| 20260510162537 | 72 | 227 | 2.0 | 7.0 | 0.00 | 0.00 | 0.00 | 65 | 1019.7 |
| 20260510162434 | 72 | 229 | 2.0 | 7.0 | 0.00 | 0.00 | 0.00 | 61 | 1019.8 |
| 20260510162335 | 72 | 225 | 2.0 | 7.0 | 0.00 | 0.00 | 0.00 | 69 | 1019.8 |
| 20260510162234 | 71 | 203 | 2.0 | 7.0 | 0.00 | 0.00 | 0.00 | 68 | 1019.8 |
| 20260510162131 | 71 | 203 | 2.0 | 7.0 | 0.00 | 0.00 | 0.00 | 69 | 1019.8 |
| 20260510162032 | 71 | 229 | 2.0 | 7.0 | 0.00 | 0.00 | 0.00 | 68 | 1019.8 |
| 20260510161931 | 71 | 231 | 2.0 | 7.0 | 0.00 | 0.00 | 0.00 | 66 | 1019.7 |
| 20260510161830 | 71 | 188 | 2.0 | 9.0 | 0.00 | 0.00 | 0.00 | 67 | 1019.8 |
| 20260510161814 | 71 | 224 | 2.0 | 9.0 | 0.00 | 0.00 | 0.00 | 65 | 1019.8 |
| 20260510161801 | 71 | 188 | 2.0 | 9.0 | 0.00 | 0.00 | 0.00 | 64 | 1019.8 |
| 20260510161530 | 71 | 248 | 2.0 | 9.0 | 0.00 | 0.00 | 0.00 | 65 | 1019.7 |
| 20260510161429 | 71 | 248 | 3.0 | 9.0 | 0.00 | 0.00 | 0.00 | 65 | 1019.8 |
| 20260510161326 | 71 | 200 | 3.0 | 9.0 | 0.00 | 0.00 | 0.00 | 66 | 1019.7 |
| 20260510161224 | 71 | 145 | 3.0 | 9.0 | 0.00 | 0.00 | 0.00 | 69 | 1019.8 |
| 20260510161126 | 71 | 275 | 3.0 | 9.0 | 0.00 | 0.00 | 0.00 | 66 | 1019.8 |
| 20260510161051 | 71 | 192 | 3.0 | 8.0 | 0.00 | 0.00 | 0.00 | 67 | 1019.8 |
| 20260510161045 | 71 | 198 | 3.0 | 8.0 | 0.00 | 0.00 | 0.00 | 69 | 1019.8 |
| 20260510161034 | 71 | 275 | 3.0 | 9.0 | 0.00 | 0.00 | 0.00 | 63 | 1019.8 |
| 20260510161004 | 71 | 205 | 3.0 | 9.0 | 0.00 | 0.00 | 0.00 | 63 | 1019.8 |
| 20260510160621 | 71 | 247 | 3.0 | 8.0 | 0.00 | 0.00 | 0.00 | 71 | 1019.8 |
| 20260510160554 | 71 | 240 | 3.0 | 8.0 | 0.00 | 0.00 | 0.00 | 71 | 1019.7 |
| 20260510160542 | 71 | 231 | 3.0 | 8.0 | 0.00 | 0.00 | 0.00 | 71 | 1019.8 |
| 20260510160355 | 71 | 236 | 3.0 | 7.0 | 0.00 | 0.00 | 0.00 | 69 | 1019.8 |
| 20260510160350 | 71 | 245 | 3.0 | 8.0 | 0.00 | 0.00 | 0.00 | 69 | 1019.8 |
| 20260510160345 | 71 | 202 | 2.0 | 7.0 | 0.00 | 0.00 | 0.00 | 70 | 1019.8 |
| 20260510160334 | 71 | 177 | 3.0 | 8.0 | 0.00 | 0.00 | 0.00 | 69 | 1019.8 |
| 20260510160316 | 71 | 269 | 3.0 | 8.0 | 0.00 | 0.00 | 0.00 | 67 | 1019.8 |
| 20260510160133 | 71 | 219 | 3.0 | 7.0 | 0.00 | 0.00 | 0.00 | 68 | 1019.8 |
| 20260510155813 | 71 | 236 | 3.0 | 7.0 | 0.00 | 0.00 | 0.00 | 69 | 1019.8 |
| 20260510155751 | 71 | 286 | 2.0 | 7.0 | 0.00 | 0.00 | 0.00 | 73 | 1019.8 |
| 20260510155738 | 71 | 190 | 3.0 | 7.0 | 0.00 | 0.00 | 0.00 | 72 | 1019.8 |
| 20260510155508 | 71 | 290 | 2.0 | 7.0 | 0.00 | 0.00 | 0.00 | 71 | 1019.8 |
| 20260510155408 | 70 | 223 | 2.0 | 7.0 | 0.00 | 0.00 | 0.00 | 71 | 1019.8 |
| 20260510155308 | 70 | 206 | 3.0 | 7.0 | 0.00 | 0.00 | 0.00 | 70 | 1019.8 |
| 20260510155240 | 70 | 188 | 3.0 | 7.0 | 0.00 | 0.00 | 0.00 | 69 | 1019.8 |
| 20260510155231 | 70 | 252 | 3.0 | 7.0 | 0.00 | 0.00 | 0.00 | 71 | 1019.8 |
| 20260510155007 | 70 | 189 | 3.0 | 7.0 | 0.00 | 0.00 | 0.00 | 68 | 1019.8 |
| 20260510154906 | 70 | 242 | 3.0 | 8.0 | 0.00 | 0.00 | 0.00 | 66 | 1019.7 |
| 20260510154837 | 70 | 223 | 3.0 | 8.0 | 0.00 | 0.00 | 0.00 | 65 | 1019.8 |
| 20260510154705 | 70 | 167 | 3.0 | 8.0 | 0.00 | 0.00 | 0.00 | 65 | 1019.7 |
| 20260510154607 | 69 | 167 | 3.0 | 8.0 | 0.00 | 0.00 | 0.00 | 70 | 1019.7 |
| 20260510154505 | 69 | 305 | 3.0 | 8.0 | 0.00 | 0.00 | 0.00 | 66 | 1019.8 |
| 20260510154400 | 69 | 267 | 3.0 | 8.0 | 0.00 | 0.00 | 0.00 | 66 | 1019.7 |
| 20260510154259 | 69 | 221 | 3.0 | 8.0 | 0.00 | 0.00 | 0.00 | 65 | 1019.8 |
| 20260510154159 | 69 | 296 | 3.0 | 8.0 | 0.00 | 0.00 | 0.00 | 65 | 1019.7 |
| 20260510154141 | 69 | 211 | 2.0 | 8.0 | 0.00 | 0.00 | 0.00 | 72 | 1019.8 |
| 20260510154128 | 69 | 209 | 2.0 | 8.0 | 0.00 | 0.00 | 0.00 | 69 | 1019.8 |
| 20260510153857 | 69 | 167 | 2.0 | 6.0 | 0.00 | 0.00 | 0.00 | 68 | 1019.8 |
| 20260510153823 | 69 | 271 | 3.0 | 7.0 | 0.00 | 0.00 | 0.00 | 70 | 1019.9 |
| 20260510153818 | 69 | 271 | 3.0 | 7.0 | 0.00 | 0.00 | 0.00 | 70 | 1019.8 |
| 20260510153808 | 69 | 165 | 3.0 | 6.0 | 0.00 | 0.00 | 0.00 | 67 | 1019.8 |
| 20260510153747 | 69 | 299 | 3.0 | 6.0 | 0.00 | 0.00 | 0.00 | 74 | 1019.9 |
| 20260510153627 | 69 | 265 | 3.0 | 7.0 | 0.00 | 0.00 | 0.00 | 72 | 1019.9 |
| 20260510153329 | 69 | 203 | 3.0 | 7.0 | 0.00 | 0.00 | 0.00 | 72 | 1019.9 |
| 20260510153319 | 69 | 277 | 3.0 | 7.0 | 0.00 | 0.00 | 0.00 | 73 | 1019.9 |
| 20260510153055 | 69 | 203 | 3.0 | 7.0 | 0.00 | 0.00 | 0.00 | 72 | 1019.9 |
| 20260510153035 | 69 | 208 | 3.0 | 7.0 | 0.00 | 0.00 | 0.00 | 73 | 1020.1 |
| 20260510153024 | 69 | 207 | 3.0 | 7.0 | 0.00 | 0.00 | 0.00 | 71 | 1019.9 |
| 20260510152758 | 69 | 191 | 3.0 | 7.0 | 0.00 | 0.00 | 0.00 | 74 | 1019.9 |
| 20260510152653 | 69 | 215 | 3.0 | 7.0 | 0.00 | 0.00 | 0.00 | 73 | 1019.9 |
| 20260510152551 | 69 | 218 | 3.0 | 7.0 | 0.00 | 0.00 | 0.00 | 74 | 1020.1 |
| 20260510152451 | 69 | 185 | 3.0 | 7.0 | 0.00 | 0.00 | 0.00 | 74 | 1019.8 |
| 20260510152352 | 69 | 219 | 3.0 | 6.0 | 0.00 | 0.00 | 0.00 | 76 | 1019.9 |
| 20260510152345 | 68 | 204 | 3.0 | 7.0 | 0.00 | 0.00 | 0.00 | 74 | 1019.9 |
| 20260510152341 | 68 | 181 | 3.0 | 7.0 | 0.00 | 0.00 | 0.00 | 75 | 1019.8 |
| 20260510152323 | 69 | 201 | 3.0 | 7.0 | 0.00 | 0.00 | 0.00 | 76 | 1019.9 |
| 20260510151946 | 68 | 301 | 2.0 | 7.0 | 0.00 | 0.00 | 0.00 | 76 | 1019.8 |
| 20260510151919 | 68 | 211 | 3.0 | 8.0 | 0.00 | 0.00 | 0.00 | 77 | 1019.8 |
| 20260510151909 | 68 | 224 | 3.0 | 8.0 | 0.00 | 0.00 | 0.00 | 77 | 1019.9 |
| 20260510151636 | 68 | 211 | 2.0 | 8.0 | 0.00 | 0.00 | 0.00 | 77 | 1019.9 |
| 20260510151617 | 68 | 200 | 3.0 | 9.0 | 0.00 | 0.00 | 0.00 | 79 | 1019.9 |
| 20260510151605 | 68 | 238 | 3.0 | 9.0 | 0.00 | 0.00 | 0.00 | 78 | 1019.9 |
| 20260510151336 | 68 | 190 | 2.0 | 9.0 | 0.00 | 0.00 | 0.00 | 79 | 1019.8 |
| 20260510151235 | 69 | 198 | 2.0 | 9.0 | 0.00 | 0.00 | 0.00 | 81 | 1019.8 |
| 20260510151158 | 68 | 203 | 3.0 | 9.0 | 0.00 | 0.00 | 0.00 | 81 | 1019.9 |
| 20260510151149 | 69 | 203 | 2.0 | 9.0 | 0.00 | 0.00 | 0.00 | 82 | 1019.8 |
| 20260510150928 | 68 | 267 | 3.0 | 9.0 | 0.00 | 0.00 | 0.00 | 79 | 1019.8 |
| 20260510150844 | 68 | 298 | 3.0 | 9.0 | 0.00 | 0.00 | 0.00 | 78 | 1019.8 |
| 20260510150736 | 68 | 312 | 3.0 | 9.0 | 0.00 | 0.00 | 0.00 | 77 | 1019.8 |
| 20260510150720 | 68 | 294 | 2.0 | 8.0 | 0.00 | 0.00 | 0.00 | 81 | 1019.8 |
| 20260510150706 | 68 | 297 | 2.0 | 8.0 | 0.00 | 0.00 | 0.00 | 85 | 1019.8 |
| 20260510150645 | 68 | 232 | 3.0 | 9.0 | 0.00 | 0.00 | 0.00 | 82 | 1019.8 |
| 20260510150621 | 68 | 303 | 2.0 | 9.0 | 0.00 | 0.00 | 0.00 | 81 | 1019.8 |
| 20260510150223 | 68 | 292 | 3.0 | 8.0 | 0.00 | 0.00 | 0.00 | 85 | 1019.7 |
| 20260510150147 | 67 | 290 | 3.0 | 8.0 | 0.00 | 0.00 | 0.00 | 86 | 1019.7 |
| 20260510150141 | 67 | 273 | 3.0 | 8.0 | 0.00 | 0.00 | 0.00 | 85 | 1019.8 |
| 20260510150129 | 68 | 290 | 3.0 | 8.0 | 0.00 | 0.00 | 0.00 | 84 | 1019.8 |
| 20260510150103 | 68 | 291 | 3.0 | 8.0 | 0.00 | 0.00 | 0.00 | 85 | 1019.7 |
| 20260510145715 | 67 | 275 | 3.0 | 8.0 | 0.00 | 0.00 | 0.00 | 85 | 1019.8 |
| 20260510145645 | 67 | 268 | 3.0 | 8.0 | 0.00 | 0.00 | 0.00 | 85 | 1019.8 |
| 20260510145636 | 67 | 221 | 3.0 | 8.0 | 0.00 | 0.00 | 0.00 | 86 | 1019.8 |
| 20260510145411 | 67 | 219 | 3.0 | 8.0 | 0.00 | 0.00 | 0.00 | 85 | 1019.8 |
| 20260510145312 | 67 | 236 | 3.0 | 8.0 | 0.00 | 0.00 | 0.00 | 84 | 1019.8 |
| 20260510145212 | 67 | 196 | 3.0 | 8.0 | 0.00 | 0.00 | 0.00 | 86 | 1019.8 |
| 20260510145111 | 67 | 348 | 3.0 | 8.0 | 0.00 | 0.00 | 0.00 | 86 | 1019.8 |
| 20260510145012 | 67 | 241 | 3.0 | 8.0 | 0.00 | 0.00 | 0.00 | 85 | 1019.8 |
| 20260510144914 | 67 | 331 | 3.0 | 8.0 | 0.00 | 0.00 | 0.00 | 86 | 1019.7 |
| 20260510144810 | 67 | 244 | 3.0 | 8.0 | 0.00 | 0.00 | 0.00 | 87 | 1019.7 |
| 20260510144711 | 67 | 318 | 2.0 | 8.0 | 0.00 | 0.00 | 0.00 | 88 | 1019.8 |
| 20260510144609 | 66 | 208 | 3.0 | 8.0 | 0.00 | 0.00 | 0.00 | 88 | 1019.7 |
| 20260510144511 | 66 | 256 | 3.0 | 8.0 | 0.00 | 0.00 | 0.00 | 87 | 1019.7 |
| 20260510144411 | 66 | 257 | 3.0 | 8.0 | 0.00 | 0.00 | 0.00 | 86 | 1019.7 |
| 20260510144308 | 66 | 285 | 3.0 | 8.0 | 0.00 | 0.00 | 0.00 | 87 | 1019.7 |
| 20260510144240 | 66 | 296 | 3.0 | 8.0 | 0.00 | 0.00 | 0.00 | 87 | 1019.7 |
| 20260510144227 | 66 | 238 | 3.0 | 8.0 | 0.00 | 0.00 | 0.00 | 86 | 1019.7 |
| 20260510144007 | 66 | 297 | 3.0 | 8.0 | 0.00 | 0.00 | 0.00 | 87 | 1019.7 |
| 20260510143907 | 66 | 265 | 3.0 | 9.0 | 0.00 | 0.00 | 0.00 | 87 | 1019.8 |
| 20260510143806 | 66 | 247 | 3.0 | 9.0 | 0.00 | 0.00 | 0.00 | 87 | 1019.7 |
| 20260510143706 | 66 | 263 | 3.0 | 9.0 | 0.00 | 0.00 | 0.00 | 87 | 1019.7 |
| 20260510143607 | 66 | 250 | 3.0 | 9.0 | 0.00 | 0.00 | 0.00 | 87 | 1019.7 |
| 20260510143506 | 66 | 269 | 3.0 | 9.0 | 0.00 | 0.00 | 0.00 | 86 | 1019.7 |
| 20260510143406 | 66 | 228 | 3.0 | 9.0 | 0.00 | 0.00 | 0.00 | 87 | 1019.7 |
| 20260510143307 | 66 | 314 | 3.0 | 9.0 | 0.00 | 0.00 | 0.00 | 86 | 1019.7 |
| 20260510143206 | 66 | 205 | 3.0 | 9.0 | 0.00 | 0.00 | 0.00 | 86 | 1019.7 |
| 20260510143107 | 66 | 236 | 3.0 | 9.0 | 0.00 | 0.00 | 0.00 | 87 | 1019.6 |
| 20260510143007 | 66 | 236 | 3.0 | 9.0 | 0.00 | 0.00 | 0.00 | 86 | 1019.7 |
| 20260510142907 | 66 | 213 | 3.0 | 8.0 | 0.00 | 0.00 | 0.00 | 87 | 1019.6 |
| 20260510142806 | 65 | 292 | 3.0 | 8.0 | 0.00 | 0.00 | 0.00 | 88 | 1019.6 |
| 20260510142606 | 65 | 177 | 3.0 | 8.0 | 0.00 | 0.00 | 0.00 | 89 | 1019.7 |
| 20260510142507 | 65 | 290 | 3.0 | 7.0 | 0.00 | 0.00 | 0.00 | 88 | 1019.6 |
| 20260510142407 | 65 | 232 | 3.0 | 7.0 | 0.00 | 0.00 | 0.00 | 87 | 1019.6 |
| 20260510142306 | 65 | 314 | 3.0 | 7.0 | 0.00 | 0.00 | 0.00 | 87 | 1019.5 |
| 20260510142206 | 65 | 259 | 3.0 | 9.0 | 0.00 | 0.00 | 0.00 | 87 | 1019.5 |
| 20260510142105 | 65 | 245 | 3.0 | 9.0 | 0.00 | 0.00 | 0.00 | 88 | 1019.5 |
| 20260510142005 | 65 | 265 | 3.0 | 9.0 | 0.00 | 0.00 | 0.00 | 88 | 1019.5 |
| 20260510141957 | 65 | 250 | 3.0 | 9.0 | 0.00 | 0.00 | 0.00 | 89 | 1019.4 |
| 20260510141952 | 65 | 207 | 3.0 | 9.0 | 0.00 | 0.00 | 0.00 | 88 | 1019.5 |
| 20260510141935 | 65 | 221 | 3.0 | 9.0 | 0.00 | 0.00 | 0.00 | 89 | 1019.5 |
| 20260510141805 | 65 | 248 | 3.0 | 9.0 | 0.00 | 0.00 | 0.00 | 88 | 1019.4 |
| 20260510141743 | 65 | 242 | 3.0 | 9.0 | 0.00 | 0.00 | 0.00 | 89 | 1019.5 |
| 20260510141358 | 65 | 213 | 3.0 | 9.0 | 0.00 | 0.00 | 0.00 | 89 | 1019.4 |
| 20260510141301 | 65 | 229 | 3.0 | 9.0 | 0.00 | 0.00 | 0.00 | 89 | 1019.4 |
| 20260510141158 | 65 | 243 | 3.0 | 8.0 | 0.00 | 0.00 | 0.00 | 88 | 1019.4 |
| 20260510141059 | 65 | 259 | 3.0 | 8.0 | 0.00 | 0.00 | 0.00 | 89 | 1019.4 |
| 20260510140953 | 64 | 230 | 4.0 | 8.0 | 0.00 | 0.00 | 0.00 | 89 | 1019.5 |
| 20260510140853 | 64 | 277 | 4.0 | 10.0 | 0.00 | 0.00 | 0.00 | 90 | 1019.5 |
| 20260510140753 | 64 | 250 | 4.0 | 10.0 | 0.00 | 0.00 | 0.00 | 90 | 1019.4 |
| 20260510140652 | 64 | 250 | 4.0 | 10.0 | 0.00 | 0.00 | 0.00 | 89 | 1019.4 |
| 20260510140552 | 64 | 221 | 4.0 | 10.0 | 0.00 | 0.00 | 0.00 | 89 | 1019.4 |
| 20260510140450 | 64 | 213 | 4.0 | 12.0 | 0.00 | 0.00 | 0.00 | 89 | 1019.4 |
| 20260510140418 | 64 | 232 | 4.0 | 12.0 | 0.00 | 0.00 | 0.00 | 90 | 1019.4 |
| 20260510140407 | 64 | 250 | 4.0 | 12.0 | 0.00 | 0.00 | 0.00 | 90 | 1019.4 |
| 20260510140147 | 64 | 281 | 4.0 | 12.0 | 0.00 | 0.00 | 0.00 | 89 | 1019.4 |
| 20260510140046 | 63 | 209 | 4.0 | 12.0 | 0.00 | 0.00 | 0.00 | 90 | 1019.4 |
| 20260510135936 | 63 | 221 | 4.0 | 12.0 | 0.00 | 0.00 | 0.00 | 91 | 1019.5 |
| 20260510135836 | 63 | 236 | 4.0 | 12.0 | 0.00 | 0.00 | 0.00 | 91 | 1019.5 |
| 20260510135738 | 63 | 229 | 4.0 | 12.0 | 0.00 | 0.00 | 0.00 | 92 | 1019.5 |
| 20260510135711 | 63 | 266 | 4.0 | 9.0 | 0.00 | 0.00 | 0.00 | 92 | 1019.4 |
| 20260510135659 | 63 | 238 | 4.0 | 12.0 | 0.00 | 0.00 | 0.00 | 92 | 1019.5 |
| 20260510135433 | 63 | 258 | 4.0 | 9.0 | 0.00 | 0.00 | 0.00 | 92 | 1019.4 |
| 20260510135329 | 63 | 296 | 4.0 | 9.0 | 0.00 | 0.00 | 0.00 | 92 | 1019.4 |
| 20260510135231 | 63 | 260 | 4.0 | 9.0 | 0.00 | 0.00 | 0.00 | 92 | 1019.4 |
| 20260510135127 | 63 | 220 | 4.0 | 9.0 | 0.00 | 0.00 | 0.00 | 93 | 1019.4 |
| 20260510135027 | 63 | 259 | 4.0 | 9.0 | 0.00 | 0.00 | 0.00 | 93 | 1019.3 |
| 20260510134953 | 62 | 188 | 4.0 | 9.0 | 0.00 | 0.00 | 0.00 | 93 | 1019.3 |
| 20260510134943 | 63 | 247 | 4.0 | 9.0 | 0.00 | 0.00 | 0.00 | 93 | 1019.3 |
| 20260510134755 | 62 | 299 | 3.0 | 9.0 | 0.00 | 0.00 | 0.00 | 93 | 1019.3 |
| 20260510134745 | 62 | 187 | 4.0 | 9.0 | 0.00 | 0.00 | 0.00 | 93 | 1019.3 |
| 20260510134520 | 62 | 242 | 3.0 | 8.0 | 0.00 | 0.00 | 0.00 | 93 | 1019.3 |
| 20260510134410 | 62 | 226 | 4.0 | 10.0 | 0.00 | 0.00 | 0.00 | 94 | 1019.2 |
| 20260510134309 | 62 | 250 | 4.0 | 10.0 | 0.00 | 0.00 | 0.00 | 94 | 1019.3 |
| 20260510134211 | 62 | 221 | 4.0 | 10.0 | 0.00 | 0.00 | 0.00 | 94 | 1019.3 |
| 20260510134109 | 62 | 217 | 4.0 | 10.0 | 0.00 | 0.00 | 0.00 | 94 | 1019.3 |
| 20260510134011 | 62 | 217 | 4.0 | 10.0 | 0.00 | 0.00 | 0.00 | 94 | 1019.3 |
| 20260510133936 | 62 | 224 | 4.0 | 14.0 | 0.00 | 0.00 | 0.00 | 94 | 1019.3 |
| 20260510133925 | 62 | 229 | 4.0 | 14.0 | 0.00 | 0.00 | 0.00 | 94 | 1019.3 |
| 20260510133705 | 62 | 231 | 4.0 | 14.0 | 0.00 | 0.00 | 0.00 | 94 | 1019.2 |
| 20260510133606 | 62 | 215 | 4.0 | 14.0 | 0.00 | 0.00 | 0.00 | 94 | 1019.3 |
| 20260510133504 | 62 | 284 | 4.0 | 14.0 | 0.00 | 0.00 | 0.00 | 94 | 1019.3 |
| 20260510133427 | 62 | 185 | 4.0 | 14.0 | 0.00 | 0.00 | 0.00 | 94 | 1019.2 |
| 20260510133417 | 62 | 221 | 4.0 | 14.0 | 0.00 | 0.00 | 0.00 | 94 | 1019.2 |
| 20260510133158 | 62 | 248 | 4.0 | 14.0 | 0.00 | 0.00 | 0.00 | 94 | 1019.3 |
| 20260510133100 | 62 | 209 | 4.0 | 14.0 | 0.00 | 0.00 | 0.00 | 94 | 1019.3 |
| 20260510132959 | 62 | 244 | 4.0 | 8.0 | 0.00 | 0.00 | 0.00 | 94 | 1019.2 |
| 20260510132844 | 62 | 235 | 4.0 | 8.0 | 0.00 | 0.00 | 0.00 | 94 | 1019.3 |
| 20260510132747 | 62 | 239 | 3.0 | 8.0 | 0.00 | 0.00 | 0.00 | 94 | 1019.3 |
| 20260510132741 | 62 | 223 | 3.0 | 8.0 | 0.00 | 0.00 | 0.00 | 95 | 1019.2 |
| 20260510132721 | 62 | 225 | 3.0 | 8.0 | 0.00 | 0.00 | 0.00 | 95 | 1019.2 |
| 20260510132710 | 62 | 223 | 3.0 | 8.0 | 0.00 | 0.00 | 0.00 | 95 | 1019.2 |
| 20260510132446 | 62 | 205 | 3.0 | 8.0 | 0.00 | 0.00 | 0.00 | 95 | 1019.2 |
| 20260510132341 | 62 | 221 | 3.0 | 8.0 | 0.00 | 0.00 | 0.00 | 95 | 1019.2 |
| 20260510132237 | 62 | 306 | 3.0 | 7.0 | 0.00 | 0.00 | 0.00 | 95 | 1019.2 |
| 20260510132139 | 62 | 205 | 3.0 | 7.0 | 0.00 | 0.00 | 0.00 | 95 | 1019.2 |
| 20260510132038 | 62 | 218 | 3.0 | 7.0 | 0.00 | 0.00 | 0.00 | 95 | 1019.2 |
| 20260510131938 | 62 | 233 | 3.0 | 6.0 | 0.00 | 0.00 | 0.00 | 95 | 1019.2 |
| 20260510131834 | 61 | 222 | 3.0 | 6.0 | 0.00 | 0.00 | 0.00 | 95 | 1019.2 |
| 20260510131733 | 61 | 355 | 3.0 | 6.0 | 0.00 | 0.00 | 0.00 | 95 | 1019.1 |
| 20260510131634 | 61 | 285 | 3.0 | 6.0 | 0.00 | 0.00 | 0.00 | 95 | 1019.2 |
| 20260510131533 | 61 | 213 | 3.0 | 8.0 | 0.00 | 0.00 | 0.00 | 95 | 1019.2 |
| 20260510131433 | 61 | 260 | 3.0 | 8.0 | 0.00 | 0.00 | 0.00 | 95 | 1019.2 |
| 20260510131322 | 61 | 219 | 3.0 | 8.0 | 0.00 | 0.00 | 0.00 | 95 | 1019.2 |
| 20260510131222 | 61 | 244 | 3.0 | 8.0 | 0.00 | 0.00 | 0.00 | 95 | 1019.2 |
| 20260510131152 | 61 | 277 | 3.0 | 8.0 | 0.00 | 0.00 | 0.00 | 95 | 1019.1 |
| 20260510131142 | 61 | 258 | 3.0 | 8.0 | 0.00 | 0.00 | 0.00 | 95 | 1019.1 |
| 20260510130922 | 61 | 216 | 4.0 | 9.0 | 0.00 | 0.00 | 0.00 | 95 | 1019.1 |
| 20260510130848 | 61 | 224 | 4.0 | 9.0 | 0.00 | 0.00 | 0.00 | 95 | 1019.2 |
| 20260510130837 | 61 | 279 | 4.0 | 9.0 | 0.00 | 0.00 | 0.00 | 95 | 1019.2 |
| 20260510130618 | 61 | 317 | 4.0 | 9.0 | 0.00 | 0.00 | 0.00 | 95 | 1019.1 |
| 20260510130557 | 61 | 210 | 4.0 | 9.0 | 0.00 | 0.00 | 0.00 | 95 | 1019.1 |
| 20260510130543 | 61 | 205 | 4.0 | 9.0 | 0.00 | 0.00 | 0.00 | 95 | 1019.2 |
| 20260510130310 | 61 | 219 | 4.0 | 9.0 | 0.00 | 0.00 | 0.00 | 95 | 1019.2 |
| 20260510130212 | 61 | 234 | 3.0 | 9.0 | 0.00 | 0.00 | 0.00 | 95 | 1019.1 |
| 20260510130112 | 61 | 230 | 4.0 | 9.0 | 0.00 | 0.00 | 0.00 | 95 | 1019.2 |
| 20260510130009 | 61 | 219 | 3.0 | 9.0 | 0.00 | 0.00 | 0.00 | 95 | 1019.1 |
| 20260510125909 | 61 | 208 | 3.0 | 9.0 | 0.00 | 0.00 | 0.00 | 95 | 1019.1 |
| 20260510125754 | 61 | 204 | 3.0 | 9.0 | 0.00 | 0.00 | 0.00 | 95 | 1019.1 |
| 20260510125654 | 61 | 263 | 3.0 | 9.0 | 0.00 | 0.00 | 0.00 | 95 | 1019.2 |
| 20260510125554 | 61 | 204 | 3.0 | 9.0 | 0.00 | 0.00 | 0.00 | 95 | 1019.1 |
| 20260510125453 | 61 | 247 | 3.0 | 9.0 | 0.00 | 0.00 | 0.00 | 95 | 1019.0 |
| 20260510125356 | 61 | 240 | 3.0 | 8.0 | 0.00 | 0.00 | 0.00 | 95 | 1019.1 |
| 20260510125250 | 61 | 250 | 3.0 | 8.0 | 0.00 | 0.00 | 0.00 | 95 | 1019.1 |
| 20260510125150 | 61 | 233 | 3.0 | 8.0 | 0.00 | 0.00 | 0.00 | 94 | 1019.1 |
| 20260510125049 | 61 | 228 | 3.0 | 8.0 | 0.00 | 0.00 | 0.00 | 94 | 1019.1 |
| 20260510124948 | 61 | 207 | 3.0 | 8.0 | 0.00 | 0.00 | 0.00 | 94 | 1019.0 |
| 20260510124849 | 61 | 253 | 3.0 | 8.0 | 0.00 | 0.00 | 0.00 | 94 | 1019.0 |
| 20260510124749 | 61 | 264 | 3.0 | 8.0 | 0.00 | 0.00 | 0.00 | 94 | 1019.0 |
| 20260510124659 | 60 | 213 | 3.0 | 9.0 | 0.00 | 0.00 | 0.00 | 94 | 1018.9 |
| 20260510124649 | 61 | 234 | 3.0 | 8.0 | 0.00 | 0.00 | 0.00 | 94 | 1019.1 |
| 20260510124641 | 60 | 292 | 3.0 | 9.0 | 0.00 | 0.00 | 0.00 | 94 | 1018.9 |
| 20260510124623 | 60 | 281 | 3.0 | 8.0 | 0.00 | 0.00 | 0.00 | 94 | 1019.0 |
| 20260510124251 | 60 | 274 | 3.0 | 9.0 | 0.00 | 0.00 | 0.00 | 94 | 1018.9 |
| 20260510124238 | 60 | 244 | 3.0 | 9.0 | 0.00 | 0.00 | 0.00 | 94 | 1018.9 |
| 20260510124035 | 60 | 229 | 4.0 | 9.0 | 0.00 | 0.00 | 0.00 | 94 | 1018.9 |
| 20260510123933 | 60 | 258 | 4.0 | 9.0 | 0.00 | 0.00 | 0.00 | 94 | 1018.9 |
| 20260510123835 | 60 | 227 | 4.0 | 9.0 | 0.00 | 0.00 | 0.00 | 94 | 1018.9 |
| 20260510123730 | 60 | 244 | 4.0 | 9.0 | 0.00 | 0.00 | 0.00 | 94 | 1018.8 |
| 20260510123630 | 60 | 240 | 4.0 | 9.0 | 0.00 | 0.00 | 0.00 | 94 | 1018.9 |
| 20260510123530 | 60 | 255 | 4.0 | 9.0 | 0.00 | 0.00 | 0.00 | 94 | 1018.9 |
| 20260510123433 | 60 | 268 | 4.0 | 9.0 | 0.00 | 0.00 | 0.00 | 94 | 1018.8 |
| 20260510123328 | 60 | 220 | 4.0 | 9.0 | 0.00 | 0.00 | 0.00 | 94 | 1018.9 |
| 20260510123227 | 60 | 289 | 4.0 | 9.0 | 0.00 | 0.00 | 0.00 | 94 | 1018.9 |
| 20260510123128 | 60 | 205 | 4.0 | 10.0 | 0.00 | 0.00 | 0.00 | 94 | 1018.9 |
| 20260510123028 | 60 | 323 | 4.0 | 10.0 | 0.00 | 0.00 | 0.00 | 94 | 1018.9 |
| 20260510122943 | 60 | 238 | 4.0 | 10.0 | 0.00 | 0.00 | 0.00 | 94 | 1018.9 |
| 20260510122931 | 60 | 196 | 4.0 | 10.0 | 0.00 | 0.00 | 0.00 | 94 | 1018.9 |
| 20260510122909 | 60 | 298 | 4.0 | 10.0 | 0.00 | 0.00 | 0.00 | 94 | 1018.8 |
| 20260510122749 | 60 | 204 | 4.0 | 10.0 | 0.00 | 0.00 | 0.00 | 94 | 1018.8 |
| 20260510122555 | 60 | 242 | 4.0 | 10.0 | 0.00 | 0.00 | 0.00 | 94 | 1018.7 |
| 20260510122545 | 60 | 217 | 4.0 | 10.0 | 0.00 | 0.00 | 0.00 | 94 | 1018.9 |
| 20260510122358 | 60 | 190 | 4.0 | 14.0 | 0.00 | 0.00 | 0.00 | 94 | 1018.8 |
| 20260510122345 | 60 | 200 | 4.0 | 14.0 | 0.00 | 0.00 | 0.00 | 94 | 1018.7 |
| 20260510122123 | 60 | 247 | 4.0 | 14.0 | 0.00 | 0.00 | 0.00 | 94 | 1018.7 |
| 20260510122017 | 60 | 306 | 4.0 | 14.0 | 0.00 | 0.00 | 0.00 | 94 | 1018.7 |
| 20260510121920 | 60 | 296 | 4.0 | 14.0 | 0.00 | 0.00 | 0.00 | 94 | 1018.7 |
| 20260510121817 | 60 | 184 | 4.0 | 14.0 | 0.00 | 0.00 | 0.00 | 94 | 1018.8 |
| 20260510121718 | 60 | 207 | 4.0 | 14.0 | 0.00 | 0.00 | 0.00 | 94 | 1018.7 |
| 20260510121617 | 60 | 250 | 4.0 | 14.0 | 0.00 | 0.00 | 0.00 | 94 | 1018.7 |
| 20260510121519 | 60 | 231 | 4.0 | 14.0 | 0.00 | 0.00 | 0.00 | 94 | 1018.7 |
| 20260510121419 | 60 | 205 | 4.0 | 14.0 | 0.00 | 0.00 | 0.00 | 94 | 1018.6 |
| 20260510121317 | 60 | 222 | 4.0 | 9.0 | 0.00 | 0.00 | 0.00 | 94 | 1018.7 |
| 20260510121219 | 60 | 235 | 4.0 | 9.0 | 0.00 | 0.00 | 0.00 | 94 | 1018.7 |
| 20260510121117 | 60 | 236 | 4.0 | 9.0 | 0.00 | 0.00 | 0.00 | 94 | 1018.7 |
| 20260510121018 | 60 | 239 | 4.0 | 9.0 | 0.00 | 0.00 | 0.00 | 94 | 1018.7 |
| 20260510120923 | 60 | 235 | 4.0 | 9.0 | 0.00 | 0.00 | 0.00 | 94 | 1018.6 |
| 20260510120817 | 60 | 202 | 4.0 | 9.0 | 0.00 | 0.00 | 0.00 | 94 | 1018.7 |
| 20260510120715 | 60 | 227 | 4.0 | 9.0 | 0.00 | 0.00 | 0.00 | 94 | 1018.7 |
| 20260510120646 | 60 | 287 | 4.0 | 10.0 | 0.00 | 0.00 | 0.00 | 94 | 1018.6 |
| 20260510120637 | 60 | 267 | 4.0 | 10.0 | 0.00 | 0.00 | 0.00 | 94 | 1018.6 |
| 20260510120455 | 60 | 227 | 4.0 | 10.0 | 0.00 | 0.00 | 0.00 | 94 | 1018.6 |
| 20260510120439 | 60 | 209 | 4.0 | 10.0 | 0.00 | 0.00 | 0.00 | 94 | 1018.5 |
| 20260510120241 | 59 | 315 | 4.0 | 8.0 | 0.00 | 0.00 | 0.00 | 94 | 1018.4 |
| 20260510120235 | 60 | 208 | 4.0 | 10.0 | 0.00 | 0.00 | 0.00 | 94 | 1018.5 |
| 20260510120222 | 60 | 237 | 4.0 | 10.0 | 0.00 | 0.00 | 0.00 | 94 | 1018.5 |
| 20260510120159 | 60 | 254 | 4.0 | 10.0 | 0.00 | 0.00 | 0.00 | 94 | 1018.6 |
| 20260510120007 | 60 | 243 | 4.0 | 10.0 | 0.00 | 0.00 | 0.00 | 94 | 1018.4 |
| 20260510115834 | 59 | 194 | 4.0 | 10.0 | 0.00 | 0.00 | 0.00 | 94 | 1018.4 |
| 20260510115807 | 59 | 229 | 4.0 | 10.0 | 0.00 | 0.00 | 0.00 | 94 | 1018.5 |
| 20260510115641 | 59 | 281 | 4.0 | 8.0 | 0.00 | 0.00 | 0.00 | 94 | 1018.4 |
| 20260510115413 | 59 | 207 | 4.0 | 9.0 | 0.00 | 0.00 | 0.00 | 94 | 1018.4 |
| 20260510115311 | 59 | 227 | 4.0 | 11.0 | 0.00 | 0.00 | 0.00 | 94 | 1018.2 |
| 20260510115211 | 59 | 234 | 4.0 | 11.0 | 0.00 | 0.00 | 0.00 | 94 | 1018.4 |
| 20260510115112 | 59 | 191 | 4.0 | 11.0 | 0.00 | 0.00 | 0.00 | 94 | 1018.4 |
| 20260510115011 | 59 | 221 | 4.0 | 11.0 | 0.00 | 0.00 | 0.00 | 94 | 1018.2 |
| 20260510114945 | 59 | 209 | 4.0 | 11.0 | 0.00 | 0.00 | 0.00 | 94 | 1018.4 |
| 20260510114934 | 59 | 331 | 4.0 | 11.0 | 0.00 | 0.00 | 0.00 | 94 | 1018.4 |
| 20260510114713 | 59 | 204 | 4.0 | 11.0 | 0.00 | 0.00 | 0.00 | 94 | 1018.2 |
| 20260510114632 | 59 | 240 | 4.0 | 11.0 | 0.00 | 0.00 | 0.00 | 94 | 1018.2 |
| 20260510114613 | 59 | 288 | 4.0 | 11.0 | 0.00 | 0.00 | 0.00 | 94 | 1018.4 |
| 20260510114417 | 59 | 237 | 4.0 | 11.0 | 0.00 | 0.00 | 0.00 | 94 | 1018.4 |
| 20260510114311 | 59 | 254 | 4.0 | 10.0 | 0.00 | 0.00 | 0.00 | 94 | 1018.4 |
| 20260510114212 | 59 | 186 | 3.0 | 9.0 | 0.00 | 0.00 | 0.00 | 94 | 1018.2 |
| 20260510114112 | 59 | 217 | 3.0 | 8.0 | 0.00 | 0.00 | 0.00 | 94 | 1018.2 |
| 20260510114012 | 59 | 205 | 3.0 | 7.0 | 0.00 | 0.00 | 0.00 | 94 | 1018.2 |
| 20260510113913 | 59 | 237 | 3.0 | 8.0 | 0.00 | 0.00 | 0.00 | 94 | 1018.2 |
| 20260510113811 | 59 | 241 | 4.0 | 8.0 | 0.00 | 0.00 | 0.00 | 94 | 1018.2 |
| 20260510113711 | 59 | 242 | 3.0 | 8.0 | 0.00 | 0.00 | 0.00 | 94 | 1018.2 |
| 20260510113612 | 59 | 218 | 3.0 | 8.0 | 0.00 | 0.00 | 0.00 | 94 | 1018.2 |
| 20260510113549 | 59 | 263 | 3.0 | 8.0 | 0.00 | 0.00 | 0.00 | 94 | 1018.1 |
| 20260510113535 | 59 | 227 | 3.0 | 8.0 | 0.00 | 0.00 | 0.00 | 94 | 1018.2 |
| 20260510113313 | 59 | 210 | 3.0 | 8.0 | 0.00 | 0.00 | 0.00 | 94 | 1018.0 |
| 20260510113213 | 59 | 223 | 3.0 | 8.0 | 0.00 | 0.00 | 0.00 | 94 | 1018.1 |
| 20260510113113 | 59 | 238 | 3.0 | 8.0 | 0.00 | 0.00 | 0.00 | 94 | 1018.0 |
| 20260510113011 | 59 | 279 | 3.0 | 8.0 | 0.00 | 0.00 | 0.00 | 94 | 1018.1 |
| 20260510112913 | 59 | 216 | 3.0 | 7.0 | 0.00 | 0.00 | 0.00 | 94 | 1018.1 |
| 20260510112812 | 59 | 246 | 3.0 | 7.0 | 0.00 | 0.00 | 0.00 | 94 | 1018.1 |
| 20260510112713 | 59 | 221 | 3.0 | 7.0 | 0.00 | 0.00 | 0.00 | 94 | 1018.1 |
| 20260510112612 | 59 | 217 | 3.0 | 7.0 | 0.00 | 0.00 | 0.00 | 94 | 1018.0 |
| 20260510112511 | 59 | 223 | 4.0 | 10.0 | 0.00 | 0.00 | 0.00 | 94 | 1018.1 |
| 20260510112411 | 59 | 259 | 4.0 | 10.0 | 0.00 | 0.00 | 0.00 | 94 | 1018.0 |
| 20260510112311 | 59 | 249 | 4.0 | 10.0 | 0.00 | 0.00 | 0.00 | 94 | 1018.0 |
| 20260510112212 | 59 | 234 | 4.0 | 10.0 | 0.00 | 0.00 | 0.00 | 94 | 1018.0 |
| 20260510112108 | 59 | 233 | 4.0 | 10.0 | 0.00 | 0.00 | 0.00 | 94 | 1018.0 |
| 20260510112007 | 59 | 234 | 4.0 | 10.0 | 0.00 | 0.00 | 0.00 | 94 | 1017.9 |
| 20260510111949 | 59 | 223 | 4.0 | 10.0 | 0.00 | 0.00 | 0.00 | 94 | 1017.9 |
| 20260510111945 | 59 | 236 | 4.0 | 10.0 | 0.00 | 0.00 | 0.00 | 94 | 1017.8 |
| 20260510111939 | 59 | 216 | 4.0 | 9.0 | 0.00 | 0.00 | 0.00 | 94 | 1017.7 |
| 20260510111929 | 59 | 227 | 4.0 | 10.0 | 0.00 | 0.00 | 0.00 | 94 | 1017.8 |
| 20260510111748 | 59 | 228 | 4.0 | 10.0 | 0.00 | 0.00 | 0.00 | 94 | 1017.8 |
| 20260510111418 | 59 | 207 | 4.0 | 8.0 | 0.00 | 0.00 | 0.00 | 94 | 1017.9 |
| 20260510111308 | 59 | 232 | 3.0 | 8.0 | 0.00 | 0.00 | 0.00 | 94 | 1017.8 |
| 20260510111211 | 59 | 223 | 4.0 | 8.0 | 0.00 | 0.00 | 0.00 | 94 | 1017.8 |
| 20260510111108 | 59 | 222 | 3.0 | 8.0 | 0.00 | 0.00 | 0.00 | 94 | 1017.9 |
| 20260510111008 | 59 | 219 | 3.0 | 8.0 | 0.00 | 0.00 | 0.00 | 94 | 1017.8 |
| 20260510110907 | 59 | 227 | 3.0 | 8.0 | 0.00 | 0.00 | 0.00 | 94 | 1017.8 |
| 20260510110807 | 59 | 205 | 3.0 | 8.0 | 0.00 | 0.00 | 0.00 | 94 | 1017.7 |
| 20260510110708 | 59 | 215 | 3.0 | 8.0 | 0.00 | 0.00 | 0.00 | 94 | 1017.7 |
| 20260510110607 | 59 | 230 | 3.0 | 8.0 | 0.00 | 0.00 | 0.00 | 94 | 1017.7 |
| 20260510110507 | 59 | 212 | 3.0 | 8.0 | 0.00 | 0.00 | 0.00 | 94 | 1017.8 |
| 20260510110408 | 59 | 218 | 3.0 | 8.0 | 0.00 | 0.00 | 0.00 | 94 | 1017.8 |
| 20260510110310 | 59 | 250 | 3.0 | 8.0 | 0.00 | 0.00 | 0.00 | 94 | 1017.7 |
| 20260510110230 | 59 | 220 | 3.0 | 6.0 | 0.00 | 0.00 | 0.00 | 94 | 1017.7 |
| 20260510110216 | 59 | 227 | 3.0 | 6.0 | 0.00 | 0.00 | 0.00 | 94 | 1017.7 |
| 20260510110147 | 59 | 227 | 3.0 | 6.0 | 0.00 | 0.00 | 0.00 | 94 | 1017.7 |
| 20260510110024 | 59 | 229 | 3.0 | 6.0 | 0.00 | 0.00 | 0.00 | 94 | 1017.6 |
| 20260510105804 | 59 | 212 | 4.0 | 6.0 | 0.00 | 0.00 | 0.00 | 94 | 1017.8 |
| 20260510105709 | 59 | 223 | 4.0 | 7.0 | 0.00 | 0.00 | 0.00 | 94 | 1017.8 |
| 20260510105634 | 59 | 220 | 4.0 | 7.0 | 0.00 | 0.00 | 0.00 | 94 | 1017.7 |
| 20260510105623 | 59 | 207 | 4.0 | 7.0 | 0.00 | 0.00 | 0.00 | 94 | 1017.8 |
| 20260510105436 | 59 | 213 | 4.0 | 7.0 | 0.00 | 0.00 | 0.00 | 94 | 1017.8 |
| 20260510105425 | 59 | 205 | 4.0 | 7.0 | 0.00 | 0.00 | 0.00 | 94 | 1017.7 |
| 20260510105159 | 59 | 232 | 4.0 | 7.0 | 0.00 | 0.00 | 0.00 | 94 | 1017.7 |
| 20260510105100 | 59 | 215 | 4.0 | 7.0 | 0.00 | 0.00 | 0.00 | 94 | 1017.7 |
| 20260510104959 | 59 | 207 | 4.0 | 7.0 | 0.00 | 0.00 | 0.00 | 94 | 1017.7 |
| 20260510104901 | 59 | 221 | 4.0 | 7.0 | 0.00 | 0.00 | 0.00 | 94 | 1017.7 |
| 20260510104759 | 59 | 236 | 3.0 | 7.0 | 0.00 | 0.00 | 0.00 | 94 | 1017.7 |
| 20260510104659 | 59 | 227 | 3.0 | 7.0 | 0.00 | 0.00 | 0.00 | 94 | 1017.6 |
| 20260510104555 | 59 | 238 | 3.0 | 7.0 | 0.00 | 0.00 | 0.00 | 94 | 1017.7 |
| 20260510104509 | 59 | 215 | 3.0 | 7.0 | 0.00 | 0.00 | 0.00 | 94 | 1017.6 |
| 20260510104357 | 59 | 202 | 3.0 | 8.0 | 0.00 | 0.00 | 0.00 | 94 | 1017.6 |
| 20260510104255 | 59 | 225 | 3.0 | 8.0 | 0.00 | 0.00 | 0.00 | 94 | 1017.6 |
| 20260510104225 | 59 | 225 | 3.0 | 8.0 | 0.00 | 0.00 | 0.00 | 94 | 1017.6 |
| 20260510104217 | 59 | 223 | 3.0 | 8.0 | 0.00 | 0.00 | 0.00 | 94 | 1017.6 |
| 20260510103957 | 59 | 221 | 3.0 | 8.0 | 0.00 | 0.00 | 0.00 | 94 | 1017.6 |
| 20260510103855 | 59 | 225 | 3.0 | 8.0 | 0.00 | 0.00 | 0.00 | 94 | 1017.5 |
| 20260510103749 | 59 | 226 | 3.0 | 8.0 | 0.00 | 0.00 | 0.00 | 94 | 1017.5 |
| 20260510103650 | 59 | 207 | 3.0 | 8.0 | 0.00 | 0.00 | 0.00 | 94 | 1017.5 |
| 20260510103550 | 59 | 205 | 3.0 | 8.0 | 0.00 | 0.00 | 0.00 | 94 | 1017.4 |
| 20260510103450 | 59 | 223 | 3.0 | 7.0 | 0.00 | 0.00 | 0.00 | 94 | 1017.5 |
| 20260510103349 | 59 | 244 | 3.0 | 7.0 | 0.00 | 0.00 | 0.00 | 94 | 1017.5 |
| 20260510103245 | 59 | 252 | 3.0 | 7.0 | 0.00 | 0.00 | 0.00 | 94 | 1017.4 |
| 20260510103145 | 59 | 209 | 3.0 | 9.0 | 0.00 | 0.00 | 0.00 | 94 | 1017.4 |
| 20260510103046 | 59 | 243 | 3.0 | 9.0 | 0.00 | 0.00 | 0.00 | 94 | 1017.4 |
| 20260510102948 | 59 | 211 | 3.0 | 9.0 | 0.00 | 0.00 | 0.00 | 94 | 1017.4 |
| 20260510102843 | 59 | 258 | 3.0 | 9.0 | 0.00 | 0.00 | 0.00 | 94 | 1017.5 |
| 20260510102753 | 59 | 194 | 3.0 | 9.0 | 0.00 | 0.00 | 0.00 | 94 | 1017.3 |
| 20260510102743 | 59 | 216 | 3.0 | 9.0 | 0.00 | 0.00 | 0.00 | 94 | 1017.4 |
| 20260510102722 | 59 | 218 | 4.0 | 9.0 | 0.00 | 0.00 | 0.00 | 94 | 1017.4 |
| 20260510102558 | 59 | 221 | 4.0 | 9.0 | 0.00 | 0.00 | 0.00 | 94 | 1017.4 |
| 20260510102337 | 59 | 224 | 3.0 | 9.0 | 0.00 | 0.00 | 0.00 | 94 | 1017.4 |
| 20260510102237 | 59 | 241 | 3.0 | 9.0 | 0.00 | 0.00 | 0.00 | 94 | 1017.4 |
| 20260510102137 | 59 | 223 | 3.0 | 7.0 | 0.00 | 0.00 | 0.00 | 94 | 1017.4 |
| 20260510102038 | 59 | 222 | 3.0 | 7.0 | 0.00 | 0.00 | 0.00 | 94 | 1017.4 |
| 20260510101937 | 59 | 227 | 3.0 | 7.0 | 0.00 | 0.00 | 0.00 | 94 | 1017.4 |
| 20260510101838 | 59 | 211 | 3.0 | 7.0 | 0.00 | 0.00 | 0.00 | 94 | 1017.4 |
| 20260510101736 | 59 | 219 | 3.0 | 7.0 | 0.00 | 0.00 | 0.00 | 94 | 1017.4 |
| 20260510101710 | 59 | 215 | 3.0 | 7.0 | 0.00 | 0.00 | 0.00 | 94 | 1017.3 |
| 20260510101700 | 59 | 223 | 3.0 | 7.0 | 0.00 | 0.00 | 0.00 | 94 | 1017.4 |
| 20260510101432 | 59 | 223 | 3.0 | 7.0 | 0.00 | 0.00 | 0.00 | 94 | 1017.3 |
| 20260510101338 | 59 | 211 | 3.0 | 7.0 | 0.00 | 0.00 | 0.00 | 94 | 1017.3 |
| 20260510101231 | 59 | 211 | 3.0 | 6.0 | 0.00 | 0.00 | 0.00 | 94 | 1017.2 |
| 20260510101206 | 59 | 213 | 4.0 | 9.0 | 0.00 | 0.00 | 0.00 | 94 | 1017.2 |
| 20260510101200 | 59 | 217 | 4.0 | 9.0 | 0.00 | 0.00 | 0.00 | 94 | 1017.2 |
| 20260510101156 | 59 | 208 | 4.0 | 9.0 | 0.00 | 0.00 | 0.00 | 94 | 1017.2 |
| 20260510101142 | 59 | 202 | 3.0 | 6.0 | 0.00 | 0.00 | 0.00 | 94 | 1017.2 |
| 20260510100837 | 59 | 221 | 4.0 | 9.0 | 0.00 | 0.00 | 0.00 | 94 | 1017.2 |
| 20260510100809 | 59 | 221 | 4.0 | 9.0 | 0.00 | 0.00 | 0.00 | 94 | 1017.2 |
| 20260510100640 | 59 | 217 | 4.0 | 9.0 | 0.00 | 0.00 | 0.00 | 94 | 1017.2 |
| 20260510100628 | 59 | 219 | 4.0 | 9.0 | 0.00 | 0.00 | 0.00 | 94 | 1017.2 |
| 20260510100602 | 59 | 203 | 4.0 | 9.0 | 0.00 | 0.00 | 0.00 | 94 | 1017.2 |
| 20260510100218 | 59 | 227 | 4.0 | 9.0 | 0.00 | 0.00 | 0.00 | 94 | 1017.2 |
| 20260510100119 | 59 | 270 | 4.0 | 9.0 | 0.00 | 0.00 | 0.00 | 94 | 1017.2 |
| 20260510100016 | 59 | 234 | 4.0 | 7.0 | 0.00 | 0.00 | 0.00 | 94 | 1017.2 |
| 20260510095915 | 59 | 230 | 4.0 | 9.0 | 0.00 | 0.00 | 0.00 | 94 | 1017.2 |
| 20260510095814 | 59 | 221 | 4.0 | 9.0 | 0.00 | 0.00 | 0.00 | 94 | 1017.2 |
| 20260510095746 | 59 | 209 | 4.0 | 9.0 | 0.00 | 0.00 | 0.00 | 94 | 1017.1 |
| 20260510095735 | 59 | 233 | 4.0 | 9.0 | 0.00 | 0.00 | 0.00 | 94 | 1017.2 |
| 20260510095513 | 59 | 222 | 4.0 | 9.0 | 0.00 | 0.00 | 0.00 | 94 | 1017.1 |
| 20260510095412 | 59 | 246 | 4.0 | 9.0 | 0.00 | 0.00 | 0.00 | 94 | 1017.1 |
| 20260510095309 | 59 | 211 | 4.0 | 10.0 | 0.00 | 0.00 | 0.00 | 94 | 1017.1 |
| 20260510095210 | 59 | 209 | 4.0 | 10.0 | 0.00 | 0.00 | 0.00 | 94 | 1017.1 |
| 20260510095109 | 59 | 218 | 4.0 | 10.0 | 0.00 | 0.00 | 0.00 | 94 | 1017.1 |
| 20260510095010 | 59 | 218 | 4.0 | 10.0 | 0.00 | 0.00 | 0.00 | 94 | 1017.0 |
| 20260510094911 | 59 | 243 | 4.0 | 10.0 | 0.00 | 0.00 | 0.00 | 94 | 1017.1 |
| 20260510094807 | 59 | 245 | 4.0 | 10.0 | 0.00 | 0.00 | 0.00 | 94 | 1017.1 |
| 20260510094706 | 59 | 225 | 4.0 | 10.0 | 0.00 | 0.00 | 0.00 | 94 | 1017.1 |
| 20260510094606 | 59 | 227 | 4.0 | 10.0 | 0.00 | 0.00 | 0.00 | 94 | 1017.1 |
| 20260510094506 | 59 | 235 | 4.0 | 10.0 | 0.00 | 0.00 | 0.00 | 94 | 1017.0 |
| 20260510094404 | 59 | 211 | 4.0 | 10.0 | 0.00 | 0.00 | 0.00 | 94 | 1017.1 |
| 20260510094301 | 59 | 223 | 4.0 | 8.0 | 0.00 | 0.00 | 0.00 | 94 | 1017.1 |
| 20260510094201 | 59 | 209 | 4.0 | 9.0 | 0.00 | 0.00 | 0.00 | 94 | 1017.1 |
| 20260510094101 | 59 | 224 | 4.0 | 9.0 | 0.00 | 0.00 | 0.00 | 94 | 1017.1 |
| 20260510094034 | 59 | 221 | 4.0 | 9.0 | 0.00 | 0.00 | 0.00 | 94 | 1017.0 |
| 20260510094021 | 59 | 279 | 4.0 | 9.0 | 0.00 | 0.00 | 0.00 | 94 | 1017.0 |
| 20260510093756 | 59 | 205 | 4.0 | 9.0 | 0.00 | 0.00 | 0.00 | 94 | 1017.0 |
| 20260510093706 | 59 | 221 | 4.0 | 9.0 | 0.00 | 0.00 | 0.00 | 94 | 1017.0 |
| 20260510093656 | 59 | 198 | 4.0 | 9.0 | 0.00 | 0.00 | 0.00 | 94 | 1017.0 |
| 20260510093640 | 59 | 219 | 4.0 | 9.0 | 0.00 | 0.00 | 0.00 | 94 | 1017.0 |
| 20260510093356 | 59 | 206 | 4.0 | 9.0 | 0.00 | 0.00 | 0.00 | 94 | 1017.0 |
| 20260510093328 | 59 | 201 | 4.0 | 9.0 | 0.00 | 0.00 | 0.00 | 94 | 1016.9 |
| 20260510093319 | 59 | 250 | 4.0 | 9.0 | 0.00 | 0.00 | 0.00 | 94 | 1016.9 |
| 20260510093128 | 59 | 217 | 4.0 | 9.0 | 0.00 | 0.00 | 0.00 | 94 | 1017.0 |
| 20260510093118 | 59 | 204 | 4.0 | 9.0 | 0.00 | 0.00 | 0.00 | 94 | 1016.9 |
| 20260510092856 | 59 | 221 | 4.0 | 9.0 | 0.00 | 0.00 | 0.00 | 94 | 1017.0 |
| 20260510092755 | 59 | 275 | 4.0 | 10.0 | 0.00 | 0.00 | 0.00 | 94 | 1017.0 |
| 20260510092726 | 59 | 278 | 4.0 | 10.0 | 0.00 | 0.00 | 0.00 | 94 | 1017.0 |
| 20260510092715 | 59 | 199 | 4.0 | 10.0 | 0.00 | 0.00 | 0.00 | 94 | 1017.0 |
| 20260510092454 | 59 | 198 | 4.0 | 10.0 | 0.00 | 0.00 | 0.00 | 94 | 1016.9 |
| 20260510092352 | 59 | 205 | 4.0 | 10.0 | 0.00 | 0.00 | 0.00 | 94 | 1017.0 |
| 20260510092253 | 59 | 205 | 4.0 | 10.0 | 0.00 | 0.00 | 0.00 | 94 | 1017.0 |
| 20260510092154 | 59 | 200 | 4.0 | 10.0 | 0.00 | 0.00 | 0.00 | 94 | 1016.9 |
| 20260510092047 | 59 | 244 | 4.0 | 10.0 | 0.00 | 0.00 | 0.00 | 94 | 1016.9 |
| 20260510091948 | 59 | 187 | 4.0 | 10.0 | 0.00 | 0.00 | 0.00 | 94 | 1016.9 |
| 20260510091918 | 59 | 209 | 4.0 | 9.0 | 0.00 | 0.00 | 0.00 | 94 | 1016.8 |
| 20260510091908 | 59 | 213 | 4.0 | 9.0 | 0.00 | 0.00 | 0.00 | 94 | 1016.8 |
| 20260510091716 | 59 | 209 | 4.0 | 9.0 | 0.00 | 0.00 | 0.00 | 94 | 1016.8 |
| 20260510091705 | 59 | 207 | 4.0 | 9.0 | 0.00 | 0.00 | 0.00 | 94 | 1016.8 |
| 20260510091440 | 59 | 219 | 4.0 | 9.0 | 0.00 | 0.00 | 0.00 | 94 | 1016.8 |
| 20260510091410 | 59 | 238 | 4.0 | 9.0 | 0.00 | 0.00 | 0.00 | 94 | 1016.7 |
| 20260510091359 | 59 | 215 | 4.0 | 9.0 | 0.00 | 0.00 | 0.00 | 94 | 1016.7 |
| 20260510091139 | 59 | 197 | 4.0 | 11.0 | 0.00 | 0.00 | 0.00 | 94 | 1016.7 |
| 20260510091036 | 59 | 225 | 4.0 | 11.0 | 0.00 | 0.00 | 0.00 | 94 | 1016.8 |
| 20260510091014 | 59 | 197 | 4.0 | 11.0 | 0.00 | 0.00 | 0.00 | 94 | 1016.7 |
| 20260510091001 | 59 | 221 | 4.0 | 11.0 | 0.00 | 0.00 | 0.00 | 94 | 1016.7 |
| 20260510090735 | 59 | 195 | 4.0 | 11.0 | 0.00 | 0.00 | 0.00 | 94 | 1016.8 |
| 20260510090633 | 59 | 232 | 4.0 | 11.0 | 0.00 | 0.00 | 0.00 | 94 | 1016.8 |
| 20260510090534 | 59 | 214 | 4.0 | 11.0 | 0.00 | 0.00 | 0.00 | 94 | 1016.7 |
| 20260510090433 | 59 | 229 | 4.0 | 11.0 | 0.00 | 0.00 | 0.00 | 94 | 1016.8 |
| 20260510090333 | 59 | 232 | 5.0 | 11.0 | 0.00 | 0.00 | 0.00 | 94 | 1016.7 |
| 20260510090233 | 59 | 211 | 5.0 | 11.0 | 0.00 | 0.00 | 0.00 | 94 | 1016.7 |
| 20260510090133 | 59 | 204 | 5.0 | 11.0 | 0.00 | 0.00 | 0.00 | 94 | 1016.7 |
| 20260510090032 | 59 | 212 | 5.0 | 12.0 | 0.00 | 0.00 | 0.00 | 94 | 1016.7 |
| 20260510085933 | 59 | 202 | 5.0 | 12.0 | 0.00 | 0.00 | 0.00 | 94 | 1016.7 |
| 20260510085842 | 59 | 221 | 5.0 | 12.0 | 0.00 | 0.00 | 0.00 | 94 | 1016.5 |
| 20260510085832 | 59 | 203 | 5.0 | 12.0 | 0.00 | 0.00 | 0.00 | 94 | 1016.7 |
| 20260510085825 | 59 | 196 | 5.0 | 12.0 | 0.00 | 0.00 | 0.00 | 94 | 1016.5 |
| 20260510085805 | 59 | 177 | 5.0 | 12.0 | 0.00 | 0.00 | 0.00 | 94 | 1016.5 |
| 20260510085429 | 59 | 211 | 5.0 | 12.0 | 0.00 | 0.00 | 0.00 | 94 | 1016.5 |
| 20260510085328 | 59 | 193 | 5.0 | 12.0 | 0.00 | 0.00 | 0.00 | 94 | 1016.5 |
| 20260510085230 | 59 | 196 | 5.0 | 12.0 | 0.00 | 0.00 | 0.00 | 94 | 1016.7 |
| 20260510085159 | 59 | 232 | 5.0 | 11.0 | 0.00 | 0.00 | 0.00 | 94 | 1016.5 |
| 20260510085149 | 59 | 228 | 5.0 | 12.0 | 0.00 | 0.00 | 0.00 | 94 | 1016.5 |
| 20260510084928 | 59 | 212 | 4.0 | 11.0 | 0.00 | 0.00 | 0.00 | 94 | 1016.5 |
| 20260510084827 | 59 | 232 | 4.0 | 10.0 | 0.00 | 0.00 | 0.00 | 94 | 1016.5 |
| 20260510084727 | 59 | 209 | 4.0 | 10.0 | 0.00 | 0.00 | 0.00 | 94 | 1016.5 |
| 20260510084702 | 59 | 206 | 4.0 | 10.0 | 0.00 | 0.00 | 0.00 | 94 | 1016.4 |
| 20260510084648 | 59 | 206 | 4.0 | 10.0 | 0.00 | 0.00 | 0.00 | 94 | 1016.5 |
| 20260510084429 | 59 | 200 | 4.0 | 10.0 | 0.00 | 0.00 | 0.00 | 94 | 1016.4 |
| 20260510084327 | 59 | 246 | 4.0 | 11.0 | 0.00 | 0.00 | 0.00 | 94 | 1016.3 |
| 20260510084224 | 59 | 207 | 4.0 | 11.0 | 0.00 | 0.00 | 0.00 | 94 | 1016.3 |
| 20260510084125 | 59 | 221 | 5.0 | 11.0 | 0.00 | 0.00 | 0.00 | 94 | 1016.3 |
| 20260510084025 | 59 | 252 | 5.0 | 11.0 | 0.00 | 0.00 | 0.00 | 94 | 1016.2 |
| 20260510083924 | 59 | 250 | 5.0 | 11.0 | 0.00 | 0.00 | 0.00 | 94 | 1016.2 |
| 20260510083826 | 59 | 238 | 5.0 | 11.0 | 0.00 | 0.00 | 0.00 | 94 | 1016.2 |
| 20260510083724 | 59 | 222 | 5.0 | 11.0 | 0.00 | 0.00 | 0.00 | 94 | 1016.1 |
| 20260510083618 | 59 | 213 | 5.0 | 11.0 | 0.00 | 0.00 | 0.00 | 94 | 1016.1 |
| 20260510083516 | 59 | 242 | 5.0 | 11.0 | 0.00 | 0.00 | 0.00 | 94 | 1016.1 |
| 20260510083451 | 59 | 240 | 5.0 | 10.0 | 0.00 | 0.00 | 0.00 | 94 | 1016.1 |
| 20260510083440 | 59 | 192 | 5.0 | 11.0 | 0.00 | 0.00 | 0.00 | 94 | 1016.1 |
| 20260510083217 | 59 | 242 | 4.0 | 10.0 | 0.00 | 0.00 | 0.00 | 94 | 1016.1 |
| 20260510083112 | 59 | 210 | 4.0 | 10.0 | 0.00 | 0.00 | 0.00 | 94 | 1016.0 |
| 20260510083010 | 59 | 202 | 4.0 | 10.0 | 0.00 | 0.00 | 0.00 | 94 | 1016.1 |
| 20260510082912 | 59 | 225 | 4.0 | 11.0 | 0.00 | 0.00 | 0.00 | 94 | 1016.1 |
| 20260510082812 | 59 | 216 | 4.0 | 11.0 | 0.00 | 0.00 | 0.00 | 94 | 1016.0 |
| 20260510082712 | 59 | 224 | 4.0 | 11.0 | 0.00 | 0.00 | 0.00 | 94 | 1016.1 |
| 20260510082606 | 59 | 229 | 4.0 | 11.0 | 0.00 | 0.00 | 0.00 | 94 | 1016.0 |
| 20260510082505 | 59 | 236 | 4.0 | 11.0 | 0.00 | 0.00 | 0.00 | 94 | 1016.0 |
| 20260510082405 | 59 | 211 | 4.0 | 11.0 | 0.00 | 0.00 | 0.00 | 93 | 1016.0 |
| 20260510082306 | 59 | 205 | 4.0 | 13.0 | 0.00 | 0.00 | 0.00 | 93 | 1016.0 |
| 20260510082204 | 59 | 200 | 4.0 | 13.0 | 0.00 | 0.00 | 0.00 | 93 | 1016.0 |
| 20260510082107 | 59 | 221 | 4.0 | 13.0 | 0.00 | 0.00 | 0.00 | 93 | 1015.9 |
| 20260510082003 | 59 | 212 | 4.0 | 13.0 | 0.00 | 0.00 | 0.00 | 93 | 1015.9 |
| 20260510081902 | 59 | 224 | 4.0 | 13.0 | 0.00 | 0.00 | 0.00 | 93 | 1015.9 |
| 20260510081800 | 59 | 236 | 4.0 | 13.0 | 0.00 | 0.00 | 0.00 | 93 | 1015.9 |
| 20260510081735 | 59 | 226 | 4.0 | 13.0 | 0.00 | 0.00 | 0.00 | 93 | 1015.9 |
| 20260510081723 | 59 | 202 | 4.0 | 13.0 | 0.00 | 0.00 | 0.00 | 93 | 1015.9 |
| 20260510081500 | 59 | 226 | 4.0 | 13.0 | 0.00 | 0.00 | 0.00 | 93 | 1015.9 |
| 20260510081359 | 59 | 208 | 4.0 | 13.0 | 0.00 | 0.00 | 0.00 | 93 | 1015.9 |
| 20260510081259 | 59 | 224 | 4.0 | 10.0 | 0.00 | 0.00 | 0.00 | 93 | 1015.9 |
| 20260510081224 | 59 | 213 | 5.0 | 12.0 | 0.00 | 0.00 | 0.00 | 93 | 1015.7 |
| 20260510081220 | 59 | 210 | 5.0 | 12.0 | 0.00 | 0.00 | 0.00 | 93 | 1015.8 |
| 20260510081214 | 59 | 220 | 5.0 | 12.0 | 0.00 | 0.00 | 0.00 | 93 | 1015.8 |
| 20260510081203 | 59 | 218 | 4.0 | 12.0 | 0.00 | 0.00 | 0.00 | 93 | 1015.9 |
| 20260510081142 | 59 | 202 | 4.0 | 12.0 | 0.00 | 0.00 | 0.00 | 93 | 1015.8 |
| 20260510081017 | 59 | 232 | 4.0 | 12.0 | 0.00 | 0.00 | 0.00 | 93 | 1015.8 |
| 20260510080956 | 59 | 213 | 4.0 | 12.0 | 0.00 | 0.00 | 0.00 | 93 | 1015.8 |
| 20260510080455 | 59 | 213 | 5.0 | 12.0 | 0.00 | 0.00 | 0.00 | 93 | 1015.8 |
| 20260510080348 | 59 | 203 | 5.0 | 12.0 | 0.00 | 0.00 | 0.00 | 93 | 1015.7 |
| 20260510080247 | 59 | 211 | 4.0 | 12.0 | 0.00 | 0.00 | 0.00 | 93 | 1015.8 |
| 20260510080228 | 59 | 231 | 4.0 | 12.0 | 0.00 | 0.00 | 0.00 | 93 | 1015.8 |
| 20260510080215 | 59 | 194 | 4.0 | 12.0 | 0.00 | 0.00 | 0.00 | 93 | 1015.7 |
| 20260510075948 | 59 | 223 | 4.0 | 12.0 | 0.00 | 0.00 | 0.00 | 93 | 1015.7 |
| 20260510075914 | 59 | 217 | 4.0 | 11.0 | 0.00 | 0.00 | 0.00 | 92 | 1015.7 |
| 20260510075904 | 59 | 209 | 4.0 | 12.0 | 0.00 | 0.00 | 0.00 | 93 | 1015.7 |
| 20260510075642 | 59 | 207 | 4.0 | 11.0 | 0.00 | 0.00 | 0.00 | 92 | 1015.7 |
| 20260510075540 | 59 | 217 | 5.0 | 11.0 | 0.00 | 0.00 | 0.00 | 92 | 1015.7 |
| 20260510075442 | 59 | 213 | 4.0 | 11.0 | 0.00 | 0.00 | 0.00 | 92 | 1015.7 |
| 20260510075328 | 59 | 199 | 4.0 | 11.0 | 0.00 | 0.00 | 0.00 | 92 | 1015.7 |
| 20260510075229 | 59 | 219 | 5.0 | 14.0 | 0.00 | 0.00 | 0.00 | 92 | 1015.7 |
| 20260510075128 | 59 | 223 | 5.0 | 14.0 | 0.00 | 0.00 | 0.00 | 92 | 1015.7 |
| 20260510075028 | 59 | 207 | 5.0 | 14.0 | 0.00 | 0.00 | 0.00 | 92 | 1015.7 |
| 20260510074929 | 59 | 192 | 5.0 | 14.0 | 0.00 | 0.00 | 0.00 | 92 | 1015.7 |
| 20260510074822 | 59 | 215 | 5.0 | 14.0 | 0.00 | 0.00 | 0.00 | 92 | 1015.7 |
| 20260510074754 | 59 | 217 | 5.0 | 14.0 | 0.00 | 0.00 | 0.00 | 92 | 1015.7 |
| 20260510074745 | 59 | 250 | 5.0 | 14.0 | 0.00 | 0.00 | 0.00 | 92 | 1015.7 |
| 20260510074556 | 59 | 206 | 5.0 | 14.0 | 0.00 | 0.00 | 0.00 | 92 | 1015.7 |
| 20260510074544 | 59 | 205 | 5.0 | 14.0 | 0.00 | 0.00 | 0.00 | 92 | 1015.7 |
| 20260510074317 | 59 | 213 | 5.0 | 14.0 | 0.00 | 0.00 | 0.00 | 92 | 1015.7 |
| 20260510074217 | 59 | 209 | 5.0 | 10.0 | 0.00 | 0.00 | 0.00 | 92 | 1015.8 |
| 20260510074151 | 59 | 211 | 5.0 | 10.0 | 0.00 | 0.00 | 0.00 | 92 | 1015.7 |
| 20260510074139 | 59 | 229 | 5.0 | 10.0 | 0.00 | 0.00 | 0.00 | 92 | 1015.8 |
| 20260510073918 | 59 | 219 | 5.0 | 11.0 | 0.00 | 0.00 | 0.00 | 92 | 1015.7 |
| 20260510073806 | 59 | 217 | 5.0 | 11.0 | 0.00 | 0.00 | 0.00 | 92 | 1015.7 |
| 20260510073706 | 59 | 203 | 4.0 | 11.0 | 0.00 | 0.00 | 0.00 | 92 | 1015.7 |
| 20260510073605 | 59 | 191 | 4.0 | 11.0 | 0.00 | 0.00 | 0.00 | 92 | 1015.7 |
| 20260510073507 | 59 | 223 | 5.0 | 11.0 | 0.00 | 0.00 | 0.00 | 92 | 1015.6 |
| 20260510073407 | 59 | 213 | 5.0 | 11.0 | 0.00 | 0.00 | 0.00 | 92 | 1015.7 |
| 20260510073301 | 59 | 226 | 5.0 | 11.0 | 0.00 | 0.00 | 0.00 | 92 | 1015.7 |
| 20260510073200 | 59 | 220 | 5.0 | 11.0 | 0.00 | 0.00 | 0.00 | 92 | 1015.6 |
| 20260510073100 | 59 | 209 | 5.0 | 11.0 | 0.00 | 0.00 | 0.00 | 92 | 1015.7 |
| 20260510072959 | 59 | 228 | 5.0 | 11.0 | 0.00 | 0.00 | 0.00 | 92 | 1015.7 |
| 20260510072900 | 59 | 231 | 5.0 | 11.0 | 0.00 | 0.00 | 0.00 | 91 | 1015.7 |
| 20260510072752 | 59 | 219 | 5.0 | 12.0 | 0.00 | 0.00 | 0.00 | 91 | 1015.7 |
| 20260510072652 | 60 | 207 | 5.0 | 12.0 | 0.00 | 0.00 | 0.00 | 92 | 1015.7 |
| 20260510072555 | 59 | 200 | 5.0 | 13.0 | 0.00 | 0.00 | 0.00 | 92 | 1015.7 |
| 20260510072529 | 60 | 214 | 5.0 | 13.0 | 0.00 | 0.00 | 0.00 | 91 | 1015.8 |
| 20260510072517 | 59 | 200 | 5.0 | 13.0 | 0.00 | 0.00 | 0.00 | 91 | 1015.7 |
| 20260510072241 | 60 | 228 | 5.0 | 13.0 | 0.00 | 0.00 | 0.00 | 91 | 1015.7 |
| 20260510072159 | 60 | 213 | 5.0 | 13.0 | 0.00 | 0.00 | 0.00 | 91 | 1015.7 |
| 20260510072154 | 60 | 209 | 5.0 | 13.0 | 0.00 | 0.00 | 0.00 | 91 | 1015.6 |
| 20260510072143 | 60 | 210 | 5.0 | 13.0 | 0.00 | 0.00 | 0.00 | 91 | 1015.7 |
| 20260510072122 | 60 | 213 | 5.0 | 13.0 | 0.00 | 0.00 | 0.00 | 91 | 1015.7 |
| 20260510071740 | 60 | 228 | 5.0 | 13.0 | 0.00 | 0.00 | 0.00 | 91 | 1015.7 |
| 20260510071641 | 60 | 229 | 5.0 | 13.0 | 0.00 | 0.00 | 0.00 | 91 | 1015.7 |
| 20260510071541 | 60 | 222 | 5.0 | 13.0 | 0.00 | 0.00 | 0.00 | 91 | 1015.8 |
| 20260510071442 | 60 | 212 | 5.0 | 13.0 | 0.00 | 0.00 | 0.00 | 91 | 1015.7 |
| 20260510071350 | 60 | 207 | 5.0 | 13.0 | 0.00 | 0.00 | 0.00 | 91 | 1015.7 |
| 20260510071240 | 60 | 206 | 5.0 | 13.0 | 0.00 | 0.00 | 0.00 | 91 | 1015.7 |
| 20260510071146 | 60 | 219 | 5.0 | 13.0 | 0.00 | 0.00 | 0.00 | 91 | 1015.7 |
| 20260510071041 | 60 | 204 | 5.0 | 13.0 | 0.00 | 0.00 | 0.00 | 91 | 1015.8 |
| 20260510070943 | 60 | 195 | 5.0 | 13.0 | 0.00 | 0.00 | 0.00 | 91 | 1015.8 |
| 20260510070842 | 60 | 216 | 5.0 | 13.0 | 0.00 | 0.00 | 0.00 | 91 | 1015.7 |
| 20260510070742 | 60 | 236 | 5.0 | 13.0 | 0.00 | 0.00 | 0.00 | 91 | 1015.7 |
| 20260510070712 | 60 | 209 | 5.0 | 12.0 | 0.00 | 0.00 | 0.00 | 91 | 1015.7 |
| 20260510070700 | 60 | 270 | 5.0 | 12.0 | 0.00 | 0.00 | 0.00 | 91 | 1015.8 |
| 20260510070435 | 60 | 213 | 5.0 | 13.0 | 0.00 | 0.00 | 0.00 | 91 | 1015.7 |
| 20260510070335 | 60 | 207 | 5.0 | 13.0 | 0.00 | 0.00 | 0.00 | 91 | 1015.7 |
| 20260510070306 | 60 | 196 | 5.0 | 13.0 | 0.00 | 0.00 | 0.00 | 90 | 1015.7 |
| 20260510070255 | 60 | 193 | 5.0 | 13.0 | 0.00 | 0.00 | 0.00 | 91 | 1015.8 |
| 20260510070037 | 60 | 222 | 5.0 | 13.0 | 0.00 | 0.00 | 0.00 | 90 | 1015.7 |
| 20260510065937 | 60 | 202 | 5.0 | 13.0 | 0.00 | 0.00 | 0.00 | 90 | 1015.7 |
| 20260510065847 | 60 | 213 | 5.0 | 13.0 | 0.00 | 0.00 | 0.00 | 90 | 1015.7 |
| 20260510065839 | 60 | 202 | 5.0 | 13.0 | 0.00 | 0.00 | 0.00 | 90 | 1015.8 |
| 20260510065831 | 60 | 212 | 5.0 | 13.0 | 0.00 | 0.00 | 0.00 | 90 | 1015.7 |
| 20260510065814 | 60 | 208 | 5.0 | 13.0 | 0.00 | 0.00 | 0.00 | 90 | 1015.7 |
| 20260510065438 | 60 | 214 | 5.0 | 12.0 | 0.00 | 0.00 | 0.00 | 90 | 1015.7 |
| 20260510065334 | 60 | 265 | 5.0 | 12.0 | 0.00 | 0.00 | 0.00 | 90 | 1015.7 |
| 20260510065235 | 60 | 202 | 5.0 | 12.0 | 0.00 | 0.00 | 0.00 | 90 | 1015.7 |
| 20260510065133 | 60 | 210 | 5.0 | 12.0 | 0.00 | 0.00 | 0.00 | 90 | 1015.8 |
| 20260510065034 | 60 | 198 | 5.0 | 12.0 | 0.00 | 0.00 | 0.00 | 90 | 1015.8 |
| 20260510064934 | 60 | 211 | 5.0 | 12.0 | 0.00 | 0.00 | 0.00 | 90 | 1015.8 |
| 20260510064830 | 60 | 207 | 5.0 | 12.0 | 0.00 | 0.00 | 0.00 | 90 | 1015.7 |
| 20260510064727 | 60 | 197 | 5.0 | 12.0 | 0.00 | 0.00 | 0.00 | 90 | 1015.8 |
| 20260510064627 | 60 | 209 | 5.0 | 13.0 | 0.00 | 0.00 | 0.00 | 90 | 1015.9 |
| 20260510064528 | 60 | 221 | 5.0 | 13.0 | 0.00 | 0.00 | 0.00 | 90 | 1015.8 |
| 20260510064427 | 59 | 214 | 5.0 | 13.0 | 0.00 | 0.00 | 0.00 | 90 | 1015.8 |
| 20260510064327 | 60 | 224 | 5.0 | 13.0 | 0.00 | 0.00 | 0.00 | 90 | 1015.8 |
| 20260510064226 | 60 | 218 | 5.0 | 13.0 | 0.00 | 0.00 | 0.00 | 89 | 1015.8 |
| 20260510064125 | 60 | 214 | 5.0 | 13.0 | 0.00 | 0.00 | 0.00 | 89 | 1015.8 |
| 20260510064024 | 60 | 207 | 5.0 | 13.0 | 0.00 | 0.00 | 0.00 | 89 | 1015.8 |
| 20260510063953 | 60 | 196 | 5.0 | 13.0 | 0.00 | 0.00 | 0.00 | 89 | 1015.8 |
| 20260510063943 | 60 | 194 | 5.0 | 13.0 | 0.00 | 0.00 | 0.00 | 89 | 1015.8 |
| 20260510063718 | 60 | 214 | 4.0 | 10.0 | 0.00 | 0.00 | 0.00 | 89 | 1015.8 |
| 20260510063620 | 60 | 216 | 4.0 | 10.0 | 0.00 | 0.00 | 0.00 | 89 | 1015.8 |
| 20260510063552 | 60 | 205 | 4.0 | 10.0 | 0.00 | 0.00 | 0.00 | 89 | 1015.8 |
| 20260510063540 | 60 | 221 | 4.0 | 10.0 | 0.00 | 0.00 | 0.00 | 89 | 1015.8 |
| 20260510063349 | 60 | 209 | 4.0 | 9.0 | 0.00 | 0.00 | 0.00 | 89 | 1015.8 |
| 20260510063339 | 60 | 213 | 4.0 | 9.0 | 0.00 | 0.00 | 0.00 | 89 | 1015.8 |
| 20260510063116 | 60 | 214 | 4.0 | 9.0 | 0.00 | 0.00 | 0.00 | 89 | 1015.9 |
| 20260510063050 | 60 | 214 | 4.0 | 9.0 | 0.00 | 0.00 | 0.00 | 88 | 1015.8 |
| 20260510063041 | 60 | 209 | 4.0 | 9.0 | 0.00 | 0.00 | 0.00 | 89 | 1015.8 |
| 20260510062817 | 60 | 196 | 4.0 | 9.0 | 0.00 | 0.00 | 0.00 | 88 | 1016.2 |
| 20260510062734 | 60 | 192 | 5.0 | 10.0 | 0.00 | 0.00 | 0.00 | 88 | 1015.8 |
| 20260510062729 | 60 | 178 | 5.0 | 10.0 | 0.00 | 0.00 | 0.00 | 88 | 1015.8 |
| 20260510062718 | 60 | 230 | 5.0 | 9.0 | 0.00 | 0.00 | 0.00 | 88 | 1015.9 |
| 20260510062656 | 60 | 214 | 5.0 | 10.0 | 0.00 | 0.00 | 0.00 | 88 | 1015.8 |
| 20260510062316 | 60 | 210 | 5.0 | 10.0 | 0.00 | 0.00 | 0.00 | 88 | 1015.8 |
| 20260510062227 | 60 | 192 | 5.0 | 10.0 | 0.00 | 0.00 | 0.00 | 88 | 1015.9 |
| 20260510062218 | 60 | 229 | 5.0 | 10.0 | 0.00 | 0.00 | 0.00 | 88 | 1015.9 |
| 20260510062154 | 60 | 232 | 5.0 | 10.0 | 0.00 | 0.00 | 0.00 | 88 | 1015.8 |
| 20260510062033 | 60 | 219 | 5.0 | 10.0 | 0.00 | 0.00 | 0.00 | 88 | 1015.9 |
| 20260510061806 | 60 | 205 | 5.0 | 10.0 | 0.00 | 0.00 | 0.00 | 88 | 1015.9 |
| 20260510061745 | 60 | 199 | 5.0 | 10.0 | 0.00 | 0.00 | 0.00 | 88 | 1015.9 |
| 20260510061732 | 60 | 192 | 4.0 | 10.0 | 0.00 | 0.00 | 0.00 | 88 | 1015.9 |
| 20260510061506 | 60 | 220 | 5.0 | 11.0 | 0.00 | 0.00 | 0.00 | 88 | 1015.9 |
| 20260510061408 | 60 | 206 | 4.0 | 11.0 | 0.00 | 0.00 | 0.00 | 87 | 1015.9 |
| 20260510061343 | 60 | 190 | 5.0 | 12.0 | 0.00 | 0.00 | 0.00 | 87 | 1015.9 |
| 20260510061338 | 60 | 215 | 5.0 | 12.0 | 0.00 | 0.00 | 0.00 | 87 | 1015.9 |
| 20260510061332 | 60 | 215 | 5.0 | 12.0 | 0.00 | 0.00 | 0.00 | 87 | 1015.9 |
| 20260510061328 | 60 | 213 | 5.0 | 12.0 | 0.00 | 0.00 | 0.00 | 87 | 1015.9 |
| 20260510061322 | 60 | 220 | 5.0 | 14.0 | 0.00 | 0.00 | 0.00 | 86 | 1016.0 |
| 20260510061311 | 60 | 231 | 4.0 | 11.0 | 0.00 | 0.00 | 0.00 | 87 | 1015.9 |
| 20260510061304 | 60 | 207 | 5.0 | 16.0 | 0.00 | 0.00 | 0.00 | 86 | 1016.0 |
| 20260510061243 | 60 | 195 | 5.0 | 12.0 | 0.00 | 0.00 | 0.00 | 87 | 1015.9 |
| 20260510061104 | 60 | 204 | 5.0 | 12.0 | 0.00 | 0.00 | 0.00 | 87 | 1015.9 |
| 20260510060805 | 60 | 207 | 5.0 | 12.0 | 0.00 | 0.00 | 0.00 | 87 | 1015.9 |
| 20260510060259 | 60 | 173 | 5.0 | 16.0 | 0.00 | 0.00 | 0.00 | 86 | 1016.0 |
| 20260510060158 | 60 | 214 | 5.0 | 16.0 | 0.00 | 0.00 | 0.00 | 86 | 1016.0 |
| 20260510060056 | 60 | 231 | 5.0 | 16.0 | 0.00 | 0.00 | 0.00 | 86 | 1016.0 |
| 20260510060000 | 60 | 221 | 5.0 | 16.0 | 0.00 | 0.00 | 0.00 | 86 | 1015.9 |
| 20260510055924 | 60 | 223 | 5.0 | 16.0 | 0.00 | 0.00 | 0.00 | 86 | 1015.9 |
| 20260510055913 | 60 | 219 | 5.0 | 16.0 | 0.00 | 0.00 | 0.00 | 86 | 1016.0 |
| 20260510055652 | 60 | 237 | 5.0 | 16.0 | 0.00 | 0.00 | 0.00 | 86 | 1016.0 |
| 20260510055552 | 60 | 242 | 5.0 | 16.0 | 0.00 | 0.00 | 0.00 | 86 | 1016.0 |
| 20260510055452 | 60 | 209 | 5.0 | 15.0 | 0.00 | 0.00 | 0.00 | 86 | 1015.9 |
| 20260510055351 | 60 | 209 | 5.0 | 11.0 | 0.00 | 0.00 | 0.00 | 86 | 1015.9 |
| 20260510055253 | 60 | 218 | 5.0 | 11.0 | 0.00 | 0.00 | 0.00 | 86 | 1016.0 |
| 20260510055226 | 60 | 182 | 5.0 | 11.0 | 0.00 | 0.00 | 0.00 | 86 | 1015.9 |
| 20260510055216 | 60 | 205 | 5.0 | 11.0 | 0.00 | 0.00 | 0.00 | 86 | 1016.0 |
| 20260510054951 | 60 | 222 | 5.0 | 11.0 | 0.00 | 0.00 | 0.00 | 86 | 1015.9 |
| 20260510054923 | 60 | 235 | 4.0 | 11.0 | 0.00 | 0.00 | 0.00 | 86 | 1016.0 |
| 20260510054912 | 60 | 212 | 5.0 | 11.0 | 0.00 | 0.00 | 0.00 | 86 | 1016.0 |
| 20260510054652 | 60 | 216 | 4.0 | 9.0 | 0.00 | 0.00 | 0.00 | 85 | 1016.0 |
| 20260510054550 | 60 | 209 | 4.0 | 9.0 | 0.00 | 0.00 | 0.00 | 85 | 1016.0 |
| 20260510054520 | 60 | 211 | 4.0 | 8.0 | 0.00 | 0.00 | 0.00 | 85 | 1016.0 |
| 20260510054511 | 60 | 209 | 4.0 | 8.0 | 0.00 | 0.00 | 0.00 | 85 | 1016.0 |
| 20260510054251 | 60 | 215 | 4.0 | 8.0 | 0.00 | 0.00 | 0.00 | 85 | 1016.0 |
| 20260510054227 | 60 | 217 | 4.0 | 10.0 | 0.00 | 0.00 | 0.00 | 85 | 1016.0 |
| 20260510054212 | 60 | 223 | 4.0 | 8.0 | 0.00 | 0.00 | 0.00 | 85 | 1016.0 |
| 20260510053949 | 60 | 210 | 4.0 | 10.0 | 0.00 | 0.00 | 0.00 | 85 | 1016.0 |
| 20260510053924 | 60 | 222 | 4.0 | 12.0 | 0.00 | 0.00 | 0.00 | 84 | 1016.2 |
| 20260510053913 | 60 | 207 | 5.0 | 10.0 | 0.00 | 0.00 | 0.00 | 85 | 1016.1 |
| 20260510053649 | 60 | 232 | 5.0 | 12.0 | 0.00 | 0.00 | 0.00 | 84 | 1016.1 |
| 20260510053550 | 60 | 206 | 5.0 | 12.0 | 0.00 | 0.00 | 0.00 | 84 | 1016.1 |
| 20260510053443 | 60 | 196 | 5.0 | 12.0 | 0.00 | 0.00 | 0.00 | 84 | 1016.1 |
| 20260510053343 | 60 | 200 | 5.0 | 12.0 | 0.00 | 0.00 | 0.00 | 83 | 1016.0 |
| 20260510053244 | 60 | 201 | 5.0 | 15.0 | 0.00 | 0.00 | 0.00 | 83 | 1016.1 |
| 20260510053143 | 61 | 238 | 5.0 | 15.0 | 0.00 | 0.00 | 0.00 | 83 | 1016.2 |
| 20260510053044 | 61 | 209 | 5.0 | 15.0 | 0.00 | 0.00 | 0.00 | 83 | 1016.2 |
| 20260510052944 | 61 | 197 | 5.0 | 15.0 | 0.00 | 0.00 | 0.00 | 83 | 1016.2 |
| 20260510052842 | 61 | 211 | 5.0 | 15.0 | 0.00 | 0.00 | 0.00 | 83 | 1016.2 |
| 20260510052812 | 61 | 207 | 5.0 | 15.0 | 0.00 | 0.00 | 0.00 | 82 | 1016.2 |
| 20260510052801 | 61 | 213 | 5.0 | 15.0 | 0.00 | 0.00 | 0.00 | 83 | 1016.2 |
| 20260510052539 | 61 | 251 | 5.0 | 15.0 | 0.00 | 0.00 | 0.00 | 82 | 1016.2 |
| 20260510052440 | 61 | 209 | 5.0 | 15.0 | 0.00 | 0.00 | 0.00 | 82 | 1016.2 |
| 20260510052339 | 61 | 214 | 5.0 | 15.0 | 0.00 | 0.00 | 0.00 | 82 | 1016.2 |
| 20260510052325 | 61 | 193 | 5.0 | 19.0 | 0.00 | 0.00 | 0.00 | 82 | 1016.1 |
| 20260510052307 | 61 | 211 | 5.0 | 19.0 | 0.00 | 0.00 | 0.00 | 82 | 1016.2 |
| 20260510052150 | 61 | 195 | 5.0 | 19.0 | 0.00 | 0.00 | 0.00 | 82 | 1016.1 |
| 20260510052140 | 61 | 182 | 5.0 | 19.0 | 0.00 | 0.00 | 0.00 | 82 | 1016.2 |
| 20260510052117 | 61 | 259 | 5.0 | 19.0 | 0.00 | 0.00 | 0.00 | 82 | 1016.2 |
| 20260510051731 | 61 | 205 | 5.0 | 19.0 | 0.00 | 0.00 | 0.00 | 82 | 1016.2 |
| 20260510051630 | 61 | 202 | 5.0 | 19.0 | 0.00 | 0.00 | 0.00 | 82 | 1016.1 |
| 20260510051533 | 61 | 175 | 5.0 | 19.0 | 0.00 | 0.00 | 0.00 | 82 | 1016.2 |
| 20260510051506 | 61 | 219 | 5.0 | 19.0 | 0.00 | 0.00 | 0.00 | 82 | 1016.2 |
| 20260510051454 | 61 | 179 | 5.0 | 19.0 | 0.00 | 0.00 | 0.00 | 82 | 1016.2 |
| 20260510051226 | 61 | 211 | 5.0 | 11.0 | 0.00 | 0.00 | 0.00 | 82 | 1016.2 |
| 20260510051126 | 61 | 221 | 5.0 | 11.0 | 0.00 | 0.00 | 0.00 | 82 | 1016.2 |
| 20260510051027 | 61 | 198 | 5.0 | 11.0 | 0.00 | 0.00 | 0.00 | 82 | 1016.2 |
| 20260510050924 | 61 | 198 | 4.0 | 10.0 | 0.00 | 0.00 | 0.00 | 82 | 1016.1 |
| 20260510050853 | 61 | 206 | 4.0 | 9.0 | 0.00 | 0.00 | 0.00 | 82 | 1016.1 |
| 20260510050844 | 61 | 219 | 4.0 | 10.0 | 0.00 | 0.00 | 0.00 | 82 | 1016.1 |
| 20260510050620 | 61 | 235 | 4.0 | 10.0 | 0.00 | 0.00 | 0.00 | 82 | 1016.1 |
| 20260510050520 | 61 | 201 | 4.0 | 10.0 | 0.00 | 0.00 | 0.00 | 82 | 1016.1 |
| 20260510050421 | 61 | 192 | 4.0 | 10.0 | 0.00 | 0.00 | 0.00 | 82 | 1016.1 |
| 20260510050318 | 61 | 202 | 4.0 | 10.0 | 0.00 | 0.00 | 0.00 | 82 | 1016.1 |
| 20260510050218 | 61 | 213 | 4.0 | 10.0 | 0.00 | 0.00 | 0.00 | 82 | 1016.1 |
| 20260510050150 | 61 | 205 | 4.0 | 13.0 | 0.00 | 0.00 | 0.00 | 82 | 1016.1 |
| 20260510050140 | 61 | 196 | 4.0 | 10.0 | 0.00 | 0.00 | 0.00 | 82 | 1016.1 |
| 20260510045916 | 61 | 209 | 4.0 | 13.0 | 0.00 | 0.00 | 0.00 | 82 | 1016.1 |
| 20260510045815 | 61 | 194 | 4.0 | 13.0 | 0.00 | 0.00 | 0.00 | 82 | 1016.1 |
| 20260510045719 | 61 | 185 | 4.0 | 13.0 | 0.00 | 0.00 | 0.00 | 82 | 1016.1 |
| 20260510045645 | 61 | 215 | 4.0 | 10.0 | 0.00 | 0.00 | 0.00 | 82 | 1016.0 |
| 20260510045640 | 61 | 221 | 4.0 | 13.0 | 0.00 | 0.00 | 0.00 | 82 | 1016.0 |
| 20260510045626 | 61 | 207 | 4.0 | 13.0 | 0.00 | 0.00 | 0.00 | 82 | 1016.1 |
| 20260510045607 | 61 | 202 | 4.0 | 13.0 | 0.00 | 0.00 | 0.00 | 82 | 1016.0 |
| 20260510045316 | 61 | 232 | 4.0 | 13.0 | 0.00 | 0.00 | 0.00 | 82 | 1016.0 |
| 20260510045309 | 61 | 222 | 4.0 | 10.0 | 0.00 | 0.00 | 0.00 | 82 | 1016.0 |
| 20260510045253 | 61 | 211 | 4.0 | 13.0 | 0.00 | 0.00 | 0.00 | 82 | 1016.0 |
| 20260510044912 | 61 | 203 | 4.0 | 12.0 | 0.00 | 0.00 | 0.00 | 82 | 1016.0 |
| 20260510044808 | 61 | 216 | 4.0 | 12.0 | 0.00 | 0.00 | 0.00 | 82 | 1016.0 |
| 20260510044709 | 61 | 209 | 4.0 | 12.0 | 0.00 | 0.00 | 0.00 | 82 | 1016.0 |
| 20260510044611 | 61 | 205 | 4.0 | 12.0 | 0.00 | 0.00 | 0.00 | 82 | 1016.0 |
| 20260510044603 | 61 | 219 | 4.0 | 12.0 | 0.00 | 0.00 | 0.00 | 82 | 1015.9 |
| 20260510044559 | 61 | 212 | 4.0 | 12.0 | 0.00 | 0.00 | 0.00 | 82 | 1016.1 |
| 20260510044554 | 61 | 190 | 4.0 | 12.0 | 0.00 | 0.00 | 0.00 | 82 | 1016.0 |
| 20260510044536 | 61 | 214 | 4.0 | 12.0 | 0.00 | 0.00 | 0.00 | 82 | 1016.0 |
| 20260510044412 | 61 | 206 | 4.0 | 12.0 | 0.00 | 0.00 | 0.00 | 82 | 1016.0 |
| 20260510044405 | 61 | 217 | 4.0 | 12.0 | 0.00 | 0.00 | 0.00 | 82 | 1016.0 |
| 20260510044350 | 61 | 192 | 4.0 | 12.0 | 0.00 | 0.00 | 0.00 | 82 | 1016.0 |
| 20260510044212 | 61 | 188 | 4.0 | 12.0 | 0.00 | 0.00 | 0.00 | 82 | 1016.0 |
| 20260510043708 | 61 | 218 | 4.0 | 12.0 | 0.00 | 0.00 | 0.00 | 82 | 1015.9 |
| 20260510043607 | 61 | 194 | 4.0 | 12.0 | 0.00 | 0.00 | 0.00 | 82 | 1016.0 |
| 20260510043507 | 61 | 198 | 4.0 | 12.0 | 0.00 | 0.00 | 0.00 | 82 | 1015.9 |
| 20260510043408 | 61 | 204 | 4.0 | 12.0 | 0.00 | 0.00 | 0.00 | 82 | 1015.9 |
| 20260510043308 | 61 | 213 | 3.0 | 12.0 | 0.00 | 0.00 | 0.00 | 82 | 1015.9 |
| 20260510043243 | 61 | 187 | 3.0 | 12.0 | 0.00 | 0.00 | 0.00 | 82 | 1015.9 |
| 20260510043231 | 61 | 246 | 3.0 | 12.0 | 0.00 | 0.00 | 0.00 | 82 | 1015.9 |
| 20260510043008 | 61 | 201 | 3.0 | 12.0 | 0.00 | 0.00 | 0.00 | 82 | 1016.0 |
| 20260510042907 | 61 | 205 | 3.0 | 10.0 | 0.00 | 0.00 | 0.00 | 82 | 1015.9 |
| 20260510042808 | 61 | 200 | 3.0 | 10.0 | 0.00 | 0.00 | 0.00 | 82 | 1015.9 |
| 20260510042709 | 61 | 208 | 3.0 | 10.0 | 0.00 | 0.00 | 0.00 | 82 | 1015.9 |
| 20260510042609 | 61 | 194 | 3.0 | 10.0 | 0.00 | 0.00 | 0.00 | 82 | 1015.8 |
| 20260510042507 | 61 | 215 | 3.0 | 10.0 | 0.00 | 0.00 | 0.00 | 82 | 1015.9 |
| 20260510042409 | 61 | 246 | 3.0 | 10.0 | 0.00 | 0.00 | 0.00 | 82 | 1015.9 |
| 20260510042309 | 61 | 259 | 3.0 | 7.0 | 0.00 | 0.00 | 0.00 | 82 | 1015.9 |
| 20260510042205 | 61 | 204 | 3.0 | 6.0 | 0.00 | 0.00 | 0.00 | 82 | 1016.0 |
| 20260510042104 | 61 | 203 | 3.0 | 6.0 | 0.00 | 0.00 | 0.00 | 82 | 1016.0 |
| 20260510042004 | 61 | 212 | 3.0 | 7.0 | 0.00 | 0.00 | 0.00 | 82 | 1015.8 |
| 20260510041905 | 61 | 205 | 3.0 | 7.0 | 0.00 | 0.00 | 0.00 | 82 | 1015.9 |
| 20260510041835 | 61 | 190 | 3.0 | 7.0 | 0.00 | 0.00 | 0.00 | 82 | 1016.0 |
| 20260510041824 | 61 | 200 | 3.0 | 7.0 | 0.00 | 0.00 | 0.00 | 82 | 1015.9 |
| 20260510041605 | 61 | 228 | 3.0 | 7.0 | 0.00 | 0.00 | 0.00 | 82 | 1015.9 |
| 20260510041459 | 61 | 194 | 3.0 | 7.0 | 0.00 | 0.00 | 0.00 | 82 | 1015.9 |
| 20260510041401 | 61 | 230 | 3.0 | 7.0 | 0.00 | 0.00 | 0.00 | 82 | 1016.0 |
| 20260510041301 | 61 | 230 | 3.0 | 7.0 | 0.00 | 0.00 | 0.00 | 82 | 1015.9 |
| 20260510041159 | 61 | 225 | 3.0 | 7.0 | 0.00 | 0.00 | 0.00 | 82 | 1016.0 |
| 20260510041100 | 61 | 235 | 3.0 | 7.0 | 0.00 | 0.00 | 0.00 | 82 | 1015.9 |
| 20260510040959 | 61 | 248 | 3.0 | 8.0 | 0.00 | 0.00 | 0.00 | 82 | 1015.9 |
| 20260510040904 | 61 | 211 | 3.0 | 8.0 | 0.00 | 0.00 | 0.00 | 82 | 1016.0 |
| 20260510040800 | 61 | 173 | 3.0 | 8.0 | 0.00 | 0.00 | 0.00 | 82 | 1015.9 |
| 20260510040659 | 61 | 210 | 3.0 | 8.0 | 0.00 | 0.00 | 0.00 | 82 | 1015.9 |
| 20260510040601 | 61 | 270 | 3.0 | 8.0 | 0.00 | 0.00 | 0.00 | 82 | 1015.9 |
| 20260510040500 | 61 | 214 | 3.0 | 8.0 | 0.00 | 0.00 | 0.00 | 82 | 1016.0 |
| 20260510040359 | 61 | 188 | 3.0 | 8.0 | 0.00 | 0.00 | 0.00 | 82 | 1015.9 |
| 20260510040331 | 61 | 202 | 3.0 | 8.0 | 0.00 | 0.00 | 0.00 | 82 | 1016.0 |
| 20260510040321 | 61 | 186 | 3.0 | 8.0 | 0.00 | 0.00 | 0.00 | 82 | 1016.0 |
| 20260510040139 | 61 | 205 | 3.0 | 8.0 | 0.00 | 0.00 | 0.00 | 82 | 1016.0 |
| 20260510040126 | 61 | 203 | 3.0 | 8.0 | 0.00 | 0.00 | 0.00 | 82 | 1016.0 |
| 20260510035859 | 61 | 165 | 3.0 | 8.0 | 0.00 | 0.00 | 0.00 | 82 | 1016.0 |
| 20260510035830 | 61 | 202 | 3.0 | 8.0 | 0.00 | 0.00 | 0.00 | 82 | 1016.0 |
| 20260510035821 | 61 | 220 | 3.0 | 8.0 | 0.00 | 0.00 | 0.00 | 82 | 1016.0 |
| 20260510035601 | 61 | 201 | 3.0 | 8.0 | 0.00 | 0.00 | 0.00 | 82 | 1016.0 |
| 20260510035500 | 61 | 197 | 2.0 | 8.0 | 0.00 | 0.00 | 0.00 | 82 | 1015.9 |
| 20260510035359 | 61 | 232 | 2.0 | 8.0 | 0.00 | 0.00 | 0.00 | 82 | 1016.0 |
| 20260510035335 | 61 | 204 | 2.0 | 8.0 | 0.00 | 0.00 | 0.00 | 82 | 1016.1 |
| 20260510035323 | 61 | 278 | 2.0 | 8.0 | 0.00 | 0.00 | 0.00 | 82 | 1016.0 |
| 20260510035059 | 61 | 194 | 2.0 | 8.0 | 0.00 | 0.00 | 0.00 | 82 | 1016.1 |
| 20260510035001 | 61 | 173 | 2.0 | 7.0 | 0.00 | 0.00 | 0.00 | 82 | 1016.0 |
| 20260510034858 | 61 | 177 | 2.0 | 7.0 | 0.00 | 0.00 | 0.00 | 82 | 1016.0 |
| 20260510034759 | 61 | 224 | 2.0 | 7.0 | 0.00 | 0.00 | 0.00 | 82 | 1016.1 |
| 20260510034657 | 61 | 194 | 2.0 | 7.0 | 0.00 | 0.00 | 0.00 | 82 | 1016.1 |
| 20260510034558 | 61 | 173 | 2.0 | 7.0 | 0.00 | 0.00 | 0.00 | 82 | 1016.0 |
| 20260510034459 | 61 | 214 | 2.0 | 7.0 | 0.00 | 0.00 | 0.00 | 82 | 1016.0 |
| 20260510034357 | 61 | 198 | 2.0 | 7.0 | 0.00 | 0.00 | 0.00 | 82 | 1016.0 |
| 20260510034257 | 61 | 193 | 2.0 | 7.0 | 0.00 | 0.00 | 0.00 | 82 | 1016.0 |
| 20260510034159 | 61 | 248 | 2.0 | 7.0 | 0.00 | 0.00 | 0.00 | 82 | 1016.0 |
| 20260510034059 | 61 | 211 | 2.0 | 7.0 | 0.00 | 0.00 | 0.00 | 82 | 1016.1 |
| 20260510033958 | 61 | 211 | 2.0 | 7.0 | 0.00 | 0.00 | 0.00 | 82 | 1016.1 |
| 20260510033930 | 61 | 200 | 3.0 | 7.0 | 0.00 | 0.00 | 0.00 | 82 | 1016.1 |
| 20260510033920 | 61 | 200 | 2.0 | 6.0 | 0.00 | 0.00 | 0.00 | 82 | 1016.1 |
| 20260510033657 | 61 | 217 | 2.0 | 7.0 | 0.00 | 0.00 | 0.00 | 82 | 1016.1 |
| 20260510033559 | 61 | 230 | 2.0 | 7.0 | 0.00 | 0.00 | 0.00 | 82 | 1016.1 |
| 20260510033530 | 61 | 202 | 2.0 | 7.0 | 0.00 | 0.00 | 0.00 | 82 | 1016.1 |
| 20260510033519 | 61 | 231 | 2.0 | 7.0 | 0.00 | 0.00 | 0.00 | 82 | 1016.1 |
| 20260510033342 | 61 | 194 | 2.0 | 7.0 | 0.00 | 0.00 | 0.00 | 83 | 1016.1 |
| 20260510033325 | 61 | 207 | 2.0 | 7.0 | 0.00 | 0.00 | 0.00 | 82 | 1016.1 |
| 20260510033057 | 61 | 231 | 2.0 | 7.0 | 0.00 | 0.00 | 0.00 | 83 | 1016.1 |
| 20260510032958 | 61 | 209 | 2.0 | 7.0 | 0.00 | 0.00 | 0.00 | 82 | 1016.1 |
| 20260510032859 | 61 | 217 | 1.0 | 7.0 | 0.00 | 0.00 | 0.00 | 83 | 1016.1 |
| 20260510032753 | 61 | 201 | 1.0 | 6.0 | 0.00 | 0.00 | 0.00 | 83 | 1016.2 |
| 20260510032653 | 60 | 212 | 1.0 | 6.0 | 0.00 | 0.00 | 0.00 | 82 | 1016.1 |
| 20260510032554 | 60 | 212 | 2.0 | 6.0 | 0.00 | 0.00 | 0.00 | 82 | 1016.2 |
| 20260510032455 | 61 | 212 | 2.0 | 6.0 | 0.00 | 0.00 | 0.00 | 82 | 1016.2 |
| 20260510032428 | 61 | 210 | 2.0 | 6.0 | 0.00 | 0.00 | 0.00 | 82 | 1016.2 |
| 20260510032418 | 61 | 209 | 2.0 | 6.0 | 0.00 | 0.00 | 0.00 | 82 | 1016.2 |
| 20260510032154 | 61 | 209 | 2.0 | 6.0 | 0.00 | 0.00 | 0.00 | 82 | 1016.2 |
| 20260510032055 | 61 | 234 | 2.0 | 6.0 | 0.00 | 0.00 | 0.00 | 82 | 1016.2 |
| 20260510031952 | 61 | 236 | 2.0 | 6.0 | 0.00 | 0.00 | 0.00 | 82 | 1016.2 |
| 20260510031852 | 61 | 236 | 2.0 | 6.0 | 0.00 | 0.00 | 0.00 | 82 | 1016.2 |
| 20260510031752 | 61 | 238 | 2.0 | 5.0 | 0.00 | 0.00 | 0.00 | 82 | 1016.2 |
| 20260510031653 | 61 | 210 | 2.0 | 5.0 | 0.00 | 0.00 | 0.00 | 82 | 1016.2 |
| 20260510031553 | 61 | 215 | 2.0 | 5.0 | 0.00 | 0.00 | 0.00 | 82 | 1016.2 |
| 20260510031452 | 61 | 208 | 2.0 | 5.0 | 0.00 | 0.00 | 0.00 | 82 | 1016.2 |
| 20260510031350 | 61 | 189 | 1.0 | 5.0 | 0.00 | 0.00 | 0.00 | 81 | 1016.2 |
| 20260510031320 | 61 | 231 | 1.0 | 5.0 | 0.00 | 0.00 | 0.00 | 81 | 1016.1 |
| 20260510031310 | 61 | 221 | 1.0 | 5.0 | 0.00 | 0.00 | 0.00 | 81 | 1016.2 |
| 20260510031040 | 61 | 239 | 1.0 | 6.0 | 0.00 | 0.00 | 0.00 | 81 | 1016.1 |
| 20260510031019 | 61 | 220 | 1.0 | 6.0 | 0.00 | 0.00 | 0.00 | 81 | 1016.2 |
| 20260510031006 | 61 | 219 | 1.0 | 6.0 | 0.00 | 0.00 | 0.00 | 81 | 1016.2 |
| 20260510030737 | 61 | 217 | 1.0 | 6.0 | 0.00 | 0.00 | 0.00 | 81 | 1016.2 |
| 20260510030638 | 61 | 215 | 1.0 | 6.0 | 0.00 | 0.00 | 0.00 | 81 | 1016.1 |
| 20260510030609 | 61 | 223 | 0.0 | 6.0 | 0.00 | 0.00 | 0.00 | 81 | 1016.2 |
| 20260510030557 | 61 | 227 | 1.0 | 6.0 | 0.00 | 0.00 | 0.00 | 81 | 1016.2 |
| 20260510030331 | 61 | 207 | 1.0 | 6.0 | 0.00 | 0.00 | 0.00 | 81 | 1016.2 |
| 20260510030230 | 61 | 207 | 1.0 | 6.0 | 0.00 | 0.00 | 0.00 | 80 | 1016.2 |
| 20260510030131 | 61 | 232 | 0.0 | 4.0 | 0.00 | 0.00 | 0.00 | 80 | 1016.2 |
| 20260510030024 | 61 | 196 | 0.0 | 3.0 | 0.00 | 0.00 | 0.00 | 80 | 1016.1 |
| 20260510030005 | 61 | 196 | 0.0 | 3.0 | 0.00 | 0.00 | 0.00 | 80 | 1016.1 |
| 20260510025952 | 61 | 196 | 1.0 | 3.0 | 0.00 | 0.00 | 0.00 | 80 | 1016.1 |
| 20260510025722 | 61 | 194 | 0.0 | 3.0 | 0.00 | 0.00 | 0.00 | 80 | 1016.0 |
| 20260510025622 | 61 | 188 | 0.0 | 3.0 | 0.00 | 0.00 | 0.00 | 79 | 1016.0 |
| 20260510025517 | 61 | 188 | 0.0 | 3.0 | 0.00 | 0.00 | 0.00 | 79 | 1016.0 |
| 20260510025417 | 61 | 188 | 0.0 | 3.0 | 0.00 | 0.00 | 0.00 | 79 | 1016.0 |
| 20260510025315 | 61 | 188 | 0.0 | 3.0 | 0.00 | 0.00 | 0.00 | 79 | 1015.9 |
| 20260510025216 | 62 | 186 | 0.0 | 3.0 | 0.00 | 0.00 | 0.00 | 79 | 1015.9 |
| 20260510025117 | 62 | 186 | 0.0 | 3.0 | 0.00 | 0.00 | 0.00 | 79 | 1015.9 |
| 20260510025010 | 62 | 182 | 0.0 | 3.0 | 0.00 | 0.00 | 0.00 | 78 | 1015.9 |
| 20260510024912 | 62 | 180 | 0.0 | 0.0 | 0.00 | 0.00 | 0.00 | 78 | 1015.8 |
| 20260510024906 | 62 | 175 | 0.0 | 0.0 | 0.00 | 0.00 | 0.00 | 78 | 1015.9 |
| 20260510024900 | 62 | 175 | 0.0 | 0.0 | 0.00 | 0.00 | 0.00 | 78 | 1015.9 |
| 20260510024844 | 62 | 180 | 0.0 | 0.0 | 0.00 | 0.00 | 0.00 | 79 | 1015.9 |
| 20260510024538 | 62 | 232 | 0.0 | 0.0 | 0.00 | 0.00 | 0.00 | 78 | 1015.9 |
| 20260510024526 | 62 | 232 | 0.0 | 0.0 | 0.00 | 0.00 | 0.00 | 78 | 1015.9 |
| 20260510024300 | 62 | 232 | 0.0 | 0.0 | 0.00 | 0.00 | 0.00 | 78 | 1015.9 |
| 20260510024159 | 62 | 232 | 0.0 | 0.0 | 0.00 | 0.00 | 0.00 | 78 | 1015.8 |
| 20260510024059 | 62 | 220 | 0.0 | 1.0 | 0.00 | 0.00 | 0.00 | 77 | 1015.9 |
| 20260510023957 | 62 | 220 | 0.0 | 2.0 | 0.00 | 0.00 | 0.00 | 77 | 1015.9 |
| 20260510023858 | 62 | 220 | 0.0 | 2.0 | 0.00 | 0.00 | 0.00 | 77 | 1015.8 |
| 20260510023757 | 62 | 220 | 0.0 | 2.0 | 0.00 | 0.00 | 0.00 | 77 | 1015.8 |
| 20260510023657 | 62 | 220 | 0.0 | 2.0 | 0.00 | 0.00 | 0.00 | 77 | 1015.8 |
| 20260510023555 | 62 | 220 | 0.0 | 3.0 | 0.00 | 0.00 | 0.00 | 77 | 1015.8 |
| 20260510023525 | 62 | 219 | 0.0 | 3.0 | 0.00 | 0.00 | 0.00 | 77 | 1015.8 |
| 20260510023513 | 62 | 220 | 0.0 | 3.0 | 0.00 | 0.00 | 0.00 | 77 | 1015.8 |
| 20260510023248 | 62 | 219 | 1.0 | 3.0 | 0.00 | 0.00 | 0.00 | 77 | 1015.7 |
| 20260510023218 | 62 | 219 | 1.0 | 4.0 | 0.00 | 0.00 | 0.00 | 76 | 1015.7 |
| 20260510023208 | 62 | 219 | 1.0 | 3.0 | 0.00 | 0.00 | 0.00 | 77 | 1015.7 |
| 20260510023016 | 63 | 219 | 1.0 | 4.0 | 0.00 | 0.00 | 0.00 | 76 | 1015.6 |
| 20260510023004 | 63 | 219 | 1.0 | 4.0 | 0.00 | 0.00 | 0.00 | 76 | 1015.7 |
| 20260510022742 | 63 | 219 | 1.0 | 4.0 | 0.00 | 0.00 | 0.00 | 76 | 1015.6 |
| 20260510022716 | 63 | 225 | 1.0 | 4.0 | 0.00 | 0.00 | 0.00 | 76 | 1015.7 |
| 20260510022705 | 63 | 219 | 1.0 | 4.0 | 0.00 | 0.00 | 0.00 | 76 | 1015.7 |
| 20260510022439 | 63 | 225 | 1.0 | 4.0 | 0.00 | 0.00 | 0.00 | 76 | 1015.6 |
| 20260510022339 | 63 | 225 | 1.0 | 4.0 | 0.00 | 0.00 | 0.00 | 76 | 1015.6 |
| 20260510022241 | 63 | 225 | 1.0 | 4.0 | 0.00 | 0.00 | 0.00 | 76 | 1015.6 |
| 20260510022137 | 63 | 225 | 1.0 | 4.0 | 0.00 | 0.00 | 0.00 | 76 | 1015.5 |
| 20260510022037 | 63 | 209 | 1.0 | 4.0 | 0.00 | 0.00 | 0.00 | 76 | 1015.5 |
| 20260510021939 | 63 | 208 | 1.0 | 4.0 | 0.00 | 0.00 | 0.00 | 75 | 1015.5 |
| 20260510021837 | 63 | 209 | 1.0 | 4.0 | 0.00 | 0.00 | 0.00 | 75 | 1015.5 |
| 20260510021737 | 63 | 209 | 1.0 | 4.0 | 0.00 | 0.00 | 0.00 | 75 | 1015.5 |
| 20260510021637 | 63 | 216 | 1.0 | 4.0 | 0.00 | 0.00 | 0.00 | 75 | 1015.5 |
| 20260510021536 | 63 | 216 | 1.0 | 4.0 | 0.00 | 0.00 | 0.00 | 75 | 1015.5 |
| 20260510021454 | 63 | 223 | 1.0 | 3.0 | 0.00 | 0.00 | 0.00 | 75 | 1015.5 |
| 20260510021450 | 63 | 223 | 1.0 | 3.0 | 0.00 | 0.00 | 0.00 | 75 | 1015.6 |
| 20260510021437 | 63 | 216 | 1.0 | 4.0 | 0.00 | 0.00 | 0.00 | 75 | 1015.5 |
| 20260510021413 | 63 | 219 | 1.0 | 3.0 | 0.00 | 0.00 | 0.00 | 75 | 1015.5 |
| 20260510021025 | 63 | 224 | 1.0 | 3.0 | 0.00 | 0.00 | 0.00 | 75 | 1015.4 |
| 20260510020925 | 63 | 226 | 1.0 | 3.0 | 0.00 | 0.00 | 0.00 | 75 | 1015.5 |
| 20260510020825 | 63 | 225 | 0.0 | 3.0 | 0.00 | 0.00 | 0.00 | 75 | 1015.4 |
| 20260510020726 | 63 | 229 | 0.0 | 3.0 | 0.00 | 0.00 | 0.00 | 75 | 1015.5 |
| 20260510020716 | 64 | 238 | 0.0 | 0.0 | 0.00 | 0.00 | 0.00 | 74 | 1015.4 |
| 20260510020711 | 64 | 238 | 0.0 | 0.0 | 0.00 | 0.00 | 0.00 | 74 | 1015.4 |
| 20260510020655 | 63 | 234 | 0.0 | 3.0 | 0.00 | 0.00 | 0.00 | 75 | 1015.4 |
| 20260510020526 | 64 | 234 | 0.0 | 3.0 | 0.00 | 0.00 | 0.00 | 75 | 1015.4 |
| 20260510020519 | 64 | 238 | 0.0 | 0.0 | 0.00 | 0.00 | 0.00 | 74 | 1015.3 |
| 20260510020459 | 64 | 238 | 0.0 | 0.0 | 0.00 | 0.00 | 0.00 | 74 | 1015.4 |
| 20260510020312 | 64 | 238 | 0.0 | 0.0 | 0.00 | 0.00 | 0.00 | 74 | 1015.3 |
| 20260510020149 | 64 | 238 | 0.0 | 0.0 | 0.00 | 0.00 | 0.00 | 74 | 1015.4 |
| 20260510015810 | 64 | 238 | 0.0 | 0.0 | 0.00 | 0.00 | 0.00 | 74 | 1015.3 |
| 20260510015752 | 64 | 238 | 0.0 | 0.0 | 0.00 | 0.00 | 0.00 | 73 | 1015.3 |
| 20260510015746 | 64 | 238 | 0.0 | 0.0 | 0.00 | 0.00 | 0.00 | 73 | 1015.3 |
| 20260510015740 | 64 | 238 | 0.0 | 0.0 | 0.00 | 0.00 | 0.00 | 72 | 1015.3 |
| 20260510015730 | 64 | 238 | 0.0 | 0.0 | 0.00 | 0.00 | 0.00 | 73 | 1015.3 |
| 20260510015545 | 64 | 238 | 0.0 | 0.0 | 0.00 | 0.00 | 0.00 | 73 | 1015.3 |
| 20260510015208 | 65 | 240 | 0.0 | 3.0 | 0.00 | 0.00 | 0.00 | 72 | 1015.2 |
| 20260510015159 | 65 | 239 | 0.0 | 0.0 | 0.00 | 0.00 | 0.00 | 72 | 1015.2 |
| 20260510015138 | 65 | 240 | 0.0 | 1.0 | 0.00 | 0.00 | 0.00 | 72 | 1015.2 |
| 20260510015018 | 65 | 240 | 0.0 | 2.0 | 0.00 | 0.00 | 0.00 | 72 | 1015.2 |
| 20260510014757 | 65 | 243 | 1.0 | 3.0 | 0.00 | 0.00 | 0.00 | 72 | 1015.1 |
| 20260510014655 | 65 | 243 | 1.0 | 3.0 | 0.00 | 0.00 | 0.00 | 71 | 1015.2 |
| 20260510014555 | 65 | 243 | 1.0 | 3.0 | 0.00 | 0.00 | 0.00 | 71 | 1015.2 |
| 20260510014455 | 65 | 243 | 1.0 | 4.0 | 0.00 | 0.00 | 0.00 | 71 | 1015.1 |
| 20260510014354 | 65 | 243 | 2.0 | 4.0 | 0.00 | 0.00 | 0.00 | 71 | 1015.2 |
| 20260510014255 | 65 | 243 | 2.0 | 4.0 | 0.00 | 0.00 | 0.00 | 71 | 1015.1 |
| 20260510014200 | 65 | 243 | 2.0 | 4.0 | 0.00 | 0.00 | 0.00 | 71 | 1015.1 |
| 20260510014049 | 65 | 243 | 2.0 | 4.0 | 0.00 | 0.00 | 0.00 | 71 | 1015.0 |
| 20260510013949 | 65 | 243 | 2.0 | 4.0 | 0.00 | 0.00 | 0.00 | 71 | 1015.0 |
| 20260510013847 | 65 | 250 | 2.0 | 4.0 | 0.00 | 0.00 | 0.00 | 71 | 1015.0 |
| 20260510013749 | 65 | 249 | 2.0 | 4.0 | 0.00 | 0.00 | 0.00 | 71 | 1015.0 |
| 20260510013647 | 65 | 246 | 2.0 | 4.0 | 0.00 | 0.00 | 0.00 | 71 | 1015.0 |
| 20260510013546 | 65 | 236 | 2.0 | 4.0 | 0.00 | 0.00 | 0.00 | 71 | 1014.8 |
| 20260510013522 | 65 | 293 | 2.0 | 4.0 | 0.00 | 0.00 | 0.00 | 71 | 1014.8 |
| 20260510013511 | 65 | 291 | 2.0 | 4.0 | 0.00 | 0.00 | 0.00 | 71 | 1014.8 |
| 20260510013248 | 65 | 292 | 2.0 | 4.0 | 0.00 | 0.00 | 0.00 | 71 | 1014.8 |
| 20260510013147 | 65 | 294 | 2.0 | 4.0 | 0.00 | 0.00 | 0.00 | 71 | 1014.7 |
| 20260510013045 | 65 | 292 | 2.0 | 4.0 | 0.00 | 0.00 | 0.00 | 71 | 1014.7 |
| 20260510012945 | 65 | 294 | 2.0 | 4.0 | 0.00 | 0.00 | 0.00 | 71 | 1014.7 |
| 20260510012844 | 65 | 296 | 2.0 | 4.0 | 0.00 | 0.00 | 0.00 | 71 | 1014.7 |
| 20260510012743 | 65 | 296 | 2.0 | 4.0 | 0.00 | 0.00 | 0.00 | 71 | 1014.7 |
| 20260510012643 | 65 | 292 | 2.0 | 4.0 | 0.00 | 0.00 | 0.00 | 71 | 1014.7 |
| 20260510012539 | 65 | 293 | 2.0 | 4.0 | 0.00 | 0.00 | 0.00 | 71 | 1014.7 |
| 20260510012441 | 65 | 288 | 2.0 | 4.0 | 0.00 | 0.00 | 0.00 | 71 | 1014.7 |
| 20260510012336 | 65 | 286 | 2.0 | 4.0 | 0.00 | 0.00 | 0.00 | 71 | 1014.7 |
| 20260510012313 | 65 | 284 | 2.0 | 4.0 | 0.00 | 0.00 | 0.00 | 70 | 1014.7 |
| 20260510012300 | 65 | 289 | 2.0 | 4.0 | 0.00 | 0.00 | 0.00 | 70 | 1014.7 |
| 20260510012104 | 65 | 281 | 2.0 | 4.0 | 0.00 | 0.00 | 0.00 | 71 | 1014.7 |
| 20260510012053 | 65 | 281 | 2.0 | 4.0 | 0.00 | 0.00 | 0.00 | 71 | 1014.7 |
| 20260510011827 | 65 | 279 | 2.0 | 4.0 | 0.00 | 0.00 | 0.00 | 71 | 1014.7 |
| 20260510011727 | 65 | 278 | 2.0 | 4.0 | 0.00 | 0.00 | 0.00 | 71 | 1014.7 |
| 20260510011627 | 65 | 281 | 2.0 | 4.0 | 0.00 | 0.00 | 0.00 | 71 | 1014.7 |
| 20260510011524 | 65 | 280 | 2.0 | 4.0 | 0.00 | 0.00 | 0.00 | 72 | 1014.7 |
| 20260510011425 | 65 | 278 | 2.0 | 4.0 | 0.00 | 0.00 | 0.00 | 72 | 1014.7 |
| 20260510011320 | 65 | 280 | 2.0 | 4.0 | 0.00 | 0.00 | 0.00 | 72 | 1014.7 |
| 20260510011255 | 65 | 283 | 2.0 | 4.0 | 0.00 | 0.00 | 0.00 | 71 | 1014.6 |
| 20260510011244 | 65 | 281 | 2.0 | 4.0 | 0.00 | 0.00 | 0.00 | 71 | 1014.6 |
| 20260510011021 | 65 | 281 | 2.0 | 4.0 | 0.00 | 0.00 | 0.00 | 72 | 1014.7 |
| 20260510010921 | 65 | 294 | 2.0 | 4.0 | 0.00 | 0.00 | 0.00 | 72 | 1014.6 |
| 20260510010822 | 65 | 286 | 2.0 | 4.0 | 0.00 | 0.00 | 0.00 | 72 | 1014.5 |
| 20260510010721 | 65 | 286 | 2.0 | 4.0 | 0.00 | 0.00 | 0.00 | 72 | 1014.5 |
| 20260510010617 | 65 | 277 | 2.0 | 4.0 | 0.00 | 0.00 | 0.00 | 72 | 1014.5 |
| 20260510010518 | 65 | 275 | 2.0 | 4.0 | 0.00 | 0.00 | 0.00 | 72 | 1014.5 |
| 20260510010415 | 65 | 270 | 2.0 | 4.0 | 0.00 | 0.00 | 0.00 | 72 | 1014.5 |
| 20260510010316 | 65 | 270 | 2.0 | 4.0 | 0.00 | 0.00 | 0.00 | 72 | 1014.5 |
| 20260510010248 | 65 | 284 | 2.0 | 4.0 | 0.00 | 0.00 | 0.00 | 72 | 1014.6 |
| 20260510010236 | 65 | 264 | 2.0 | 4.0 | 0.00 | 0.00 | 0.00 | 72 | 1014.5 |
| 20260510010053 | 65 | 290 | 2.0 | 5.0 | 0.00 | 0.00 | 0.00 | 72 | 1014.5 |
| 20260510010039 | 65 | 290 | 2.0 | 5.0 | 0.00 | 0.00 | 0.00 | 72 | 1014.5 |
| 20260510005839 | 65 | 286 | 2.0 | 5.0 | 0.00 | 0.00 | 0.00 | 72 | 1014.4 |
| 20260510005831 | 65 | 290 | 2.0 | 5.0 | 0.00 | 0.00 | 0.00 | 72 | 1014.5 |
| 20260510005656 | 65 | 294 | 2.0 | 6.0 | 0.00 | 0.00 | 0.00 | 72 | 1014.3 |
| 20260510005650 | 65 | 265 | 2.0 | 6.0 | 0.00 | 0.00 | 0.00 | 72 | 1014.4 |
| 20260510005640 | 65 | 281 | 2.0 | 6.0 | 0.00 | 0.00 | 0.00 | 72 | 1014.4 |
| 20260510005456 | 65 | 265 | 2.0 | 6.0 | 0.00 | 0.00 | 0.00 | 72 | 1014.4 |
| 20260510005333 | 65 | 247 | 2.0 | 6.0 | 0.00 | 0.00 | 0.00 | 72 | 1014.4 |
| 20260510005108 | 65 | 306 | 2.0 | 6.0 | 0.00 | 0.00 | 0.00 | 72 | 1014.4 |
| 20260510005007 | 65 | 260 | 2.0 | 6.0 | 0.00 | 0.00 | 0.00 | 72 | 1014.3 |
| 20260510004906 | 65 | 296 | 2.0 | 6.0 | 0.00 | 0.00 | 0.00 | 72 | 1014.4 |
| 20260510004804 | 65 | 291 | 2.0 | 6.0 | 0.00 | 0.00 | 0.00 | 72 | 1014.4 |
| 20260510004659 | 65 | 291 | 2.0 | 6.0 | 0.00 | 0.00 | 0.00 | 72 | 1014.4 |
| 20260510004559 | 65 | 250 | 2.0 | 4.0 | 0.00 | 0.00 | 0.00 | 72 | 1014.4 |
| 20260510004459 | 65 | 286 | 2.0 | 4.0 | 0.00 | 0.00 | 0.00 | 72 | 1014.3 |
| 20260510004401 | 65 | 285 | 2.0 | 5.0 | 0.00 | 0.00 | 0.00 | 72 | 1014.3 |
| 20260510004257 | 65 | 254 | 2.0 | 5.0 | 0.00 | 0.00 | 0.00 | 72 | 1014.3 |
| 20260510004158 | 65 | 304 | 2.0 | 5.0 | 0.00 | 0.00 | 0.00 | 72 | 1014.3 |
| 20260510004054 | 65 | 298 | 2.0 | 5.0 | 0.00 | 0.00 | 0.00 | 72 | 1014.3 |
| 20260510003955 | 65 | 306 | 3.0 | 6.0 | 0.00 | 0.00 | 0.00 | 72 | 1014.3 |
| 20260510003855 | 65 | 276 | 3.0 | 6.0 | 0.00 | 0.00 | 0.00 | 72 | 1014.3 |
| 20260510003757 | 65 | 244 | 3.0 | 6.0 | 0.00 | 0.00 | 0.00 | 72 | 1014.3 |
| 20260510003656 | 65 | 239 | 3.0 | 6.0 | 0.00 | 0.00 | 0.00 | 72 | 1014.3 |
| 20260510003555 | 65 | 269 | 3.0 | 6.0 | 0.00 | 0.00 | 0.00 | 72 | 1014.3 |
| 20260510003456 | 65 | 284 | 3.0 | 6.0 | 0.00 | 0.00 | 0.00 | 72 | 1014.3 |
| 20260510003430 | 65 | 239 | 3.0 | 6.0 | 0.00 | 0.00 | 0.00 | 72 | 1014.3 |
| 20260510003418 | 65 | 296 | 2.0 | 6.0 | 0.00 | 0.00 | 0.00 | 72 | 1014.3 |
| 20260510003219 | 65 | 233 | 2.0 | 6.0 | 0.00 | 0.00 | 0.00 | 72 | 1014.3 |
| 20260510003213 | 65 | 277 | 2.0 | 6.0 | 0.00 | 0.00 | 0.00 | 72 | 1014.2 |
| 20260510003159 | 65 | 223 | 3.0 | 6.0 | 0.00 | 0.00 | 0.00 | 72 | 1014.3 |
| 20260510003137 | 65 | 264 | 2.0 | 6.0 | 0.00 | 0.00 | 0.00 | 72 | 1014.4 |
| 20260510002749 | 65 | 238 | 2.0 | 6.0 | 0.00 | 0.00 | 0.00 | 72 | 1014.2 |
| 20260510002650 | 65 | 229 | 2.0 | 6.0 | 0.00 | 0.00 | 0.00 | 72 | 1014.3 |
| 20260510002550 | 65 | 226 | 2.0 | 6.0 | 0.00 | 0.00 | 0.00 | 71 | 1014.2 |
| 20260510002449 | 65 | 284 | 2.0 | 6.0 | 0.00 | 0.00 | 0.00 | 72 | 1014.2 |
| 20260510002349 | 65 | 285 | 2.0 | 6.0 | 0.00 | 0.00 | 0.00 | 71 | 1014.1 |
| 20260510002246 | 65 | 269 | 2.0 | 6.0 | 0.00 | 0.00 | 0.00 | 72 | 1014.2 |
| 20260510002146 | 65 | 259 | 2.0 | 4.0 | 0.00 | 0.00 | 0.00 | 71 | 1014.1 |
| 20260510002044 | 65 | 265 | 2.0 | 4.0 | 0.00 | 0.00 | 0.00 | 71 | 1014.2 |
| 20260510001940 | 65 | 269 | 2.0 | 4.0 | 0.00 | 0.00 | 0.00 | 71 | 1014.2 |
| 20260510001837 | 65 | 272 | 2.0 | 4.0 | 0.00 | 0.00 | 0.00 | 71 | 1014.1 |
| 20260510001739 | 65 | 263 | 2.0 | 4.0 | 0.00 | 0.00 | 0.00 | 71 | 1014.2 |
| 20260510001638 | 65 | 264 | 2.0 | 4.0 | 0.00 | 0.00 | 0.00 | 71 | 1014.2 |
| 20260510001537 | 65 | 284 | 2.0 | 4.0 | 0.00 | 0.00 | 0.00 | 71 | 1014.2 |
| 20260510001433 | 65 | 250 | 2.0 | 4.0 | 0.00 | 0.00 | 0.00 | 71 | 1014.2 |
| 20260510001332 | 65 | 252 | 2.0 | 4.0 | 0.00 | 0.00 | 0.00 | 71 | 1014.2 |
| 20260510001237 | 65 | 249 | 2.0 | 4.0 | 0.00 | 0.00 | 0.00 | 71 | 1014.2 |
| 20260510001132 | 65 | 252 | 2.0 | 4.0 | 0.00 | 0.00 | 0.00 | 71 | 1014.2 |
| 20260510001029 | 65 | 250 | 2.0 | 4.0 | 0.00 | 0.00 | 0.00 | 71 | 1014.2 |
| 20260510000924 | 65 | 251 | 2.0 | 4.0 | 0.00 | 0.00 | 0.00 | 71 | 1014.2 |
| 20260510000825 | 65 | 251 | 2.0 | 4.0 | 0.00 | 0.00 | 0.00 | 71 | 1014.2 |
| 20260510000806 | 66 | 244 | 2.0 | 4.0 | 0.00 | 0.00 | 0.00 | 71 | 1014.1 |
| 20260510000753 | 66 | 242 | 2.0 | 4.0 | 0.00 | 0.00 | 0.00 | 71 | 1014.1 |
| 20260510000522 | 66 | 234 | 2.0 | 4.0 | 0.00 | 0.00 | 0.00 | 72 | 1014.2 |
| 20260510000421 | 66 | 238 | 2.0 | 4.0 | 0.00 | 0.00 | 0.00 | 72 | 1014.2 |
| 20260510000352 | 66 | 236 | 2.0 | 4.0 | 0.00 | 0.00 | 0.00 | 72 | 1014.1 |
| 20260510000342 | 66 | 235 | 2.0 | 4.0 | 0.00 | 0.00 | 0.00 | 72 | 1014.1 |
| 20260510000119 | 66 | 250 | 1.0 | 3.0 | 0.00 | 0.00 | 0.00 | 72 | 1014.2 |
| 20260510000015 | 66 | 252 | 1.0 | 3.0 | 0.00 | 0.00 | 0.00 | 72 | 1014.1 |
| 20260509235905 | 66 | 233 | 1.0 | 3.0 | 0.00 | 0.00 | 0.00 | 71 | 1014.1 |
| 20260509235805 | 66 | 232 | 1.0 | 3.0 | 0.00 | 0.00 | 0.00 | 71 | 1014.1 |
| 20260509235703 | 66 | 250 | 1.0 | 3.0 | 0.00 | 0.00 | 0.00 | 71 | 1014.1 |
| 20260509235604 | 66 | 232 | 1.0 | 3.0 | 0.00 | 0.00 | 0.00 | 71 | 1014.1 |
| 20260509235502 | 66 | 232 | 1.0 | 4.0 | 0.00 | 0.00 | 0.00 | 71 | 1014.0 |
| 20260509235355 | 66 | 234 | 1.0 | 4.0 | 0.00 | 0.00 | 0.00 | 71 | 1014.1 |
| 20260509235254 | 66 | 234 | 1.0 | 4.0 | 0.00 | 0.00 | 0.00 | 71 | 1014.0 |
| 20260509235201 | 66 | 248 | 1.0 | 4.0 | 0.00 | 0.00 | 0.00 | 71 | 1014.0 |
| 20260509235152 | 66 | 219 | 1.0 | 4.0 | 0.00 | 0.00 | 0.00 | 71 | 1014.0 |
| 20260509235132 | 66 | 221 | 1.0 | 4.0 | 0.00 | 0.00 | 0.00 | 71 | 1014.0 |
| 20260509235011 | 66 | 219 | 1.0 | 4.0 | 0.00 | 0.00 | 0.00 | 72 | 1014.0 |
| 20260509234749 | 67 | 217 | 1.0 | 4.0 | 0.00 | 0.00 | 0.00 | 71 | 1014.1 |
| 20260509234733 | 67 | 288 | 2.0 | 7.0 | 0.00 | 0.00 | 0.00 | 70 | 1014.1 |
| 20260509234727 | 67 | 281 | 2.0 | 5.0 | 0.00 | 0.00 | 0.00 | 71 | 1014.1 |
| 20260509234712 | 67 | 215 | 1.0 | 4.0 | 0.00 | 0.00 | 0.00 | 71 | 1014.1 |
| 20260509234653 | 67 | 215 | 1.0 | 5.0 | 0.00 | 0.00 | 0.00 | 71 | 1014.0 |
| 20260509234405 | 67 | 281 | 2.0 | 7.0 | 0.00 | 0.00 | 0.00 | 71 | 1014.1 |
| 20260509234141 | 67 | 288 | 2.0 | 7.0 | 0.00 | 0.00 | 0.00 | 70 | 1014.1 |
| 20260509234041 | 67 | 236 | 2.0 | 7.0 | 0.00 | 0.00 | 0.00 | 70 | 1014.1 |
| 20260509233940 | 67 | 274 | 1.0 | 7.0 | 0.00 | 0.00 | 0.00 | 70 | 1014.0 |
| 20260509233908 | 67 | 260 | 1.0 | 7.0 | 0.00 | 0.00 | 0.00 | 70 | 1014.0 |
| 20260509233858 | 67 | 260 | 1.0 | 7.0 | 0.00 | 0.00 | 0.00 | 70 | 1014.1 |
| 20260509233638 | 67 | 260 | 2.0 | 7.0 | 0.00 | 0.00 | 0.00 | 69 | 1013.9 |
| 20260509233535 | 67 | 221 | 2.0 | 7.0 | 0.00 | 0.00 | 0.00 | 70 | 1014.0 |
| 20260509233434 | 67 | 221 | 2.0 | 7.0 | 0.00 | 0.00 | 0.00 | 70 | 1014.0 |
| 20260509233327 | 67 | 221 | 2.0 | 7.0 | 0.00 | 0.00 | 0.00 | 70 | 1014.0 |
| 20260509233227 | 67 | 221 | 2.0 | 7.0 | 0.00 | 0.00 | 0.00 | 70 | 1014.0 |
| 20260509233128 | 67 | 221 | 3.0 | 7.0 | 0.00 | 0.00 | 0.00 | 70 | 1013.9 |
| 20260509233027 | 67 | 231 | 3.0 | 7.0 | 0.00 | 0.00 | 0.00 | 69 | 1014.0 |
| 20260509232928 | 67 | 231 | 3.0 | 7.0 | 0.00 | 0.00 | 0.00 | 69 | 1013.9 |
| 20260509232846 | 67 | 231 | 3.0 | 9.0 | 0.00 | 0.00 | 0.00 | 68 | 1013.9 |
| 20260509232836 | 67 | 231 | 4.0 | 9.0 | 0.00 | 0.00 | 0.00 | 69 | 1014.0 |
| 20260509232633 | 68 | 267 | 3.0 | 9.0 | 0.00 | 0.00 | 0.00 | 68 | 1013.9 |
| 20260509232627 | 68 | 192 | 3.0 | 9.0 | 0.00 | 0.00 | 0.00 | 68 | 1013.9 |
| 20260509232615 | 68 | 225 | 3.0 | 9.0 | 0.00 | 0.00 | 0.00 | 68 | 1013.9 |
| 20260509232549 | 68 | 276 | 3.0 | 9.0 | 0.00 | 0.00 | 0.00 | 68 | 1013.9 |
| 20260509232239 | 68 | 232 | 3.0 | 9.0 | 0.00 | 0.00 | 0.00 | 68 | 1013.8 |
| 20260509232228 | 68 | 295 | 3.0 | 9.0 | 0.00 | 0.00 | 0.00 | 68 | 1013.8 |
| 20260509232006 | 68 | 234 | 3.0 | 9.0 | 0.00 | 0.00 | 0.00 | 68 | 1013.7 |
| 20260509231905 | 68 | 232 | 3.0 | 9.0 | 0.00 | 0.00 | 0.00 | 67 | 1013.9 |
| 20260509231759 | 68 | 225 | 3.0 | 7.0 | 0.00 | 0.00 | 0.00 | 67 | 1013.9 |
| 20260509231732 | 68 | 297 | 3.0 | 7.0 | 0.00 | 0.00 | 0.00 | 66 | 1013.9 |
| 20260509231722 | 68 | 276 | 3.0 | 7.0 | 0.00 | 0.00 | 0.00 | 67 | 1013.8 |
| 20260509231500 | 68 | 283 | 3.0 | 7.0 | 0.00 | 0.00 | 0.00 | 66 | 1013.8 |
| 20260509231359 | 68 | 313 | 3.0 | 7.0 | 0.00 | 0.00 | 0.00 | 67 | 1013.7 |
| 20260509231251 | 68 | 321 | 3.0 | 7.0 | 0.00 | 0.00 | 0.00 | 68 | 1013.7 |
| 20260509231150 | 68 | 271 | 3.0 | 7.0 | 0.00 | 0.00 | 0.00 | 67 | 1013.7 |
| 20260509231050 | 69 | 288 | 3.0 | 7.0 | 0.00 | 0.00 | 0.00 | 67 | 1013.7 |
| 20260509230951 | 68 | 317 | 2.0 | 6.0 | 0.00 | 0.00 | 0.00 | 67 | 1013.6 |
| 20260509230851 | 69 | 317 | 2.0 | 6.0 | 0.00 | 0.00 | 0.00 | 66 | 1013.6 |
| 20260509230751 | 69 | 322 | 2.0 | 6.0 | 0.00 | 0.00 | 0.00 | 66 | 1013.6 |
| 20260509230651 | 69 | 321 | 2.0 | 6.0 | 0.00 | 0.00 | 0.00 | 66 | 1013.7 |
| 20260509230550 | 69 | 294 | 2.0 | 5.0 | 0.00 | 0.00 | 0.00 | 65 | 1013.6 |
| 20260509230526 | 69 | 281 | 2.0 | 5.0 | 0.00 | 0.00 | 0.00 | 66 | 1013.6 |
| 20260509230518 | 69 | 283 | 2.0 | 5.0 | 0.00 | 0.00 | 0.00 | 66 | 1013.6 |
| 20260509230249 | 69 | 242 | 2.0 | 5.0 | 0.00 | 0.00 | 0.00 | 67 | 1013.6 |
| 20260509230212 | 69 | 284 | 2.0 | 5.0 | 0.00 | 0.00 | 0.00 | 65 | 1013.6 |
| 20260509230203 | 69 | 230 | 2.0 | 5.0 | 0.00 | 0.00 | 0.00 | 66 | 1013.6 |
| 20260509230142 | 69 | 277 | 2.0 | 5.0 | 0.00 | 0.00 | 0.00 | 66 | 1013.6 |
| 20260509230015 | 69 | 284 | 2.0 | 5.0 | 0.00 | 0.00 | 0.00 | 65 | 1013.6 |
| 20260509225746 | 69 | 340 | 2.0 | 5.0 | 0.00 | 0.00 | 0.00 | 67 | 1013.6 |
| 20260509225648 | 69 | 291 | 2.0 | 5.0 | 0.00 | 0.00 | 0.00 | 66 | 1013.5 |
| 20260509225541 | 69 | 273 | 2.0 | 8.0 | 0.00 | 0.00 | 0.00 | 66 | 1013.5 |
| 20260509225438 | 69 | 271 | 2.0 | 8.0 | 0.00 | 0.00 | 0.00 | 67 | 1013.6 |
| 20260509225339 | 69 | 273 | 3.0 | 8.0 | 0.00 | 0.00 | 0.00 | 67 | 1013.6 |
| 20260509225240 | 69 | 261 | 3.0 | 8.0 | 0.00 | 0.00 | 0.00 | 68 | 1013.6 |
| 20260509225139 | 69 | 225 | 3.0 | 8.0 | 0.00 | 0.00 | 0.00 | 67 | 1013.6 |
| 20260509225039 | 69 | 294 | 3.0 | 8.0 | 0.00 | 0.00 | 0.00 | 66 | 1013.6 |
| 20260509224939 | 69 | 222 | 3.0 | 8.0 | 0.00 | 0.00 | 0.00 | 66 | 1013.6 |
| 20260509224842 | 69 | 192 | 3.0 | 8.0 | 0.00 | 0.00 | 0.00 | 65 | 1013.6 |
| 20260509224739 | 69 | 229 | 3.0 | 8.0 | 0.00 | 0.00 | 0.00 | 64 | 1013.6 |
| 20260509224640 | 69 | 238 | 2.0 | 8.0 | 0.00 | 0.00 | 0.00 | 65 | 1013.6 |
| 20260509224538 | 69 | 249 | 2.0 | 7.0 | 0.00 | 0.00 | 0.00 | 65 | 1013.6 |
| 20260509224440 | 69 | 215 | 2.0 | 7.0 | 0.00 | 0.00 | 0.00 | 66 | 1013.6 |
| 20260509224336 | 69 | 250 | 2.0 | 7.0 | 0.00 | 0.00 | 0.00 | 66 | 1013.5 |
| 20260509224238 | 70 | 220 | 2.0 | 7.0 | 0.00 | 0.00 | 0.00 | 68 | 1013.5 |
| 20260509224138 | 70 | 219 | 2.0 | 7.0 | 0.00 | 0.00 | 0.00 | 68 | 1013.5 |
| 20260509224038 | 70 | 220 | 2.0 | 7.0 | 0.00 | 0.00 | 0.00 | 67 | 1013.5 |
| 20260509223933 | 70 | 214 | 2.0 | 8.0 | 0.00 | 0.00 | 0.00 | 66 | 1013.5 |
| 20260509223830 | 70 | 214 | 2.0 | 8.0 | 0.00 | 0.00 | 0.00 | 67 | 1013.5 |
| 20260509223732 | 70 | 240 | 2.0 | 8.0 | 0.00 | 0.00 | 0.00 | 67 | 1013.5 |
| 20260509223725 | 69 | 239 | 3.0 | 8.0 | 0.00 | 0.00 | 0.00 | 67 | 1013.5 |
| 20260509223720 | 69 | 207 | 2.0 | 8.0 | 0.00 | 0.00 | 0.00 | 67 | 1013.6 |
| 20260509223703 | 69 | 238 | 2.0 | 8.0 | 0.00 | 0.00 | 0.00 | 67 | 1013.5 |
| 20260509223404 | 69 | 303 | 2.0 | 7.0 | 0.00 | 0.00 | 0.00 | 68 | 1013.7 |
| 20260509223359 | 69 | 253 | 3.0 | 8.0 | 0.00 | 0.00 | 0.00 | 67 | 1013.7 |
| 20260509223353 | 69 | 275 | 2.0 | 7.0 | 0.00 | 0.00 | 0.00 | 67 | 1013.7 |
| 20260509223346 | 69 | 281 | 2.0 | 8.0 | 0.00 | 0.00 | 0.00 | 65 | 1013.6 |
| 20260509223325 | 69 | 194 | 3.0 | 8.0 | 0.00 | 0.00 | 0.00 | 66 | 1013.6 |
| 20260509223149 | 69 | 180 | 3.0 | 8.0 | 0.00 | 0.00 | 0.00 | 66 | 1013.7 |
| 20260509222859 | 69 | 302 | 2.0 | 7.0 | 0.00 | 0.00 | 0.00 | 67 | 1013.7 |
| 20260509222613 | 69 | 242 | 2.0 | 7.0 | 0.00 | 0.00 | 0.00 | 68 | 1013.7 |
| 20260509222514 | 68 | 262 | 2.0 | 7.0 | 0.00 | 0.00 | 0.00 | 69 | 1013.7 |
| 20260509222414 | 68 | 262 | 2.0 | 7.0 | 0.00 | 0.00 | 0.00 | 67 | 1013.6 |
| 20260509222316 | 68 | 261 | 2.0 | 7.0 | 0.00 | 0.00 | 0.00 | 67 | 1013.6 |
| 20260509222214 | 68 | 257 | 2.0 | 6.0 | 0.00 | 0.00 | 0.00 | 68 | 1013.6 |
| 20260509222108 | 68 | 203 | 2.0 | 5.0 | 0.00 | 0.00 | 0.00 | 68 | 1013.6 |
| 20260509222058 | 68 | 257 | 2.0 | 5.0 | 0.00 | 0.00 | 0.00 | 68 | 1013.6 |
| 20260509222045 | 68 | 213 | 2.0 | 5.0 | 0.00 | 0.00 | 0.00 | 69 | 1013.6 |
| 20260509221802 | 68 | 215 | 2.0 | 5.0 | 0.00 | 0.00 | 0.00 | 69 | 1013.6 |
| 20260509221703 | 68 | 215 | 1.0 | 5.0 | 0.00 | 0.00 | 0.00 | 69 | 1013.6 |
| 20260509221603 | 68 | 205 | 2.0 | 5.0 | 0.00 | 0.00 | 0.00 | 69 | 1013.7 |
| 20260509221504 | 68 | 205 | 2.0 | 5.0 | 0.00 | 0.00 | 0.00 | 68 | 1013.7 |
| 20260509221402 | 68 | 227 | 1.0 | 4.0 | 0.00 | 0.00 | 0.00 | 69 | 1013.7 |
| 20260509221257 | 68 | 238 | 1.0 | 4.0 | 0.00 | 0.00 | 0.00 | 69 | 1013.7 |
| 20260509221156 | 68 | 236 | 1.0 | 4.0 | 0.00 | 0.00 | 0.00 | 68 | 1013.7 |
| 20260509221126 | 68 | 247 | 1.0 | 5.0 | 0.00 | 0.00 | 0.00 | 68 | 1013.7 |
| 20260509221115 | 68 | 246 | 1.0 | 5.0 | 0.00 | 0.00 | 0.00 | 68 | 1013.7 |
| 20260509220852 | 68 | 247 | 1.0 | 5.0 | 0.00 | 0.00 | 0.00 | 67 | 1013.8 |
| 20260509220750 | 68 | 211 | 1.0 | 5.0 | 0.00 | 0.00 | 0.00 | 67 | 1013.6 |
| 20260509220652 | 69 | 211 | 1.0 | 5.0 | 0.00 | 0.00 | 0.00 | 66 | 1013.6 |
| 20260509220620 | 69 | 214 | 1.0 | 5.0 | 0.00 | 0.00 | 0.00 | 66 | 1013.7 |
| 20260509220609 | 69 | 214 | 1.0 | 5.0 | 0.00 | 0.00 | 0.00 | 66 | 1013.7 |
| 20260509220347 | 69 | 213 | 1.0 | 5.0 | 0.00 | 0.00 | 0.00 | 67 | 1013.7 |
| 20260509220249 | 69 | 203 | 2.0 | 5.0 | 0.00 | 0.00 | 0.00 | 67 | 1013.7 |
| 20260509220146 | 69 | 203 | 2.0 | 6.0 | 0.00 | 0.00 | 0.00 | 66 | 1013.8 |
| 20260509220048 | 69 | 211 | 2.0 | 6.0 | 0.00 | 0.00 | 0.00 | 68 | 1013.7 |
| 20260509215944 | 69 | 209 | 2.0 | 6.0 | 0.00 | 0.00 | 0.00 | 68 | 1013.8 |
| 20260509215846 | 69 | 209 | 2.0 | 8.0 | 0.00 | 0.00 | 0.00 | 68 | 1013.7 |
| 20260509215746 | 69 | 215 | 2.0 | 8.0 | 0.00 | 0.00 | 0.00 | 66 | 1013.7 |
| 20260509215645 | 69 | 250 | 2.0 | 8.0 | 0.00 | 0.00 | 0.00 | 65 | 1013.7 |
| 20260509215620 | 69 | 250 | 2.0 | 8.0 | 0.00 | 0.00 | 0.00 | 65 | 1013.8 |
| 20260509215607 | 69 | 250 | 2.0 | 8.0 | 0.00 | 0.00 | 0.00 | 64 | 1013.8 |
| 20260509215345 | 69 | 250 | 2.0 | 8.0 | 0.00 | 0.00 | 0.00 | 64 | 1013.8 |
| 20260509215315 | 70 | 217 | 2.0 | 8.0 | 0.00 | 0.00 | 0.00 | 65 | 1013.8 |
| 20260509215306 | 69 | 249 | 2.0 | 8.0 | 0.00 | 0.00 | 0.00 | 64 | 1013.7 |
| 20260509215042 | 70 | 228 | 2.0 | 8.0 | 0.00 | 0.00 | 0.00 | 68 | 1013.7 |
| 20260509214943 | 70 | 230 | 2.0 | 8.0 | 0.00 | 0.00 | 0.00 | 68 | 1013.7 |
| 20260509214843 | 70 | 213 | 2.0 | 8.0 | 0.00 | 0.00 | 0.00 | 67 | 1013.7 |
| 20260509214744 | 70 | 213 | 2.0 | 8.0 | 0.00 | 0.00 | 0.00 | 67 | 1013.8 |
| 20260509214643 | 70 | 213 | 2.0 | 8.0 | 0.00 | 0.00 | 0.00 | 65 | 1013.7 |
| 20260509214543 | 70 | 213 | 2.0 | 8.0 | 0.00 | 0.00 | 0.00 | 66 | 1013.7 |
| 20260509214443 | 70 | 213 | 2.0 | 8.0 | 0.00 | 0.00 | 0.00 | 67 | 1013.7 |
| 20260509214419 | 70 | 315 | 1.0 | 8.0 | 0.00 | 0.00 | 0.00 | 65 | 1013.6 |
| 20260509214405 | 70 | 216 | 2.0 | 8.0 | 0.00 | 0.00 | 0.00 | 66 | 1013.7 |
| 20260509214143 | 70 | 224 | 1.0 | 5.0 | 0.00 | 0.00 | 0.00 | 66 | 1013.7 |
| 20260509214044 | 70 | 205 | 1.0 | 5.0 | 0.00 | 0.00 | 0.00 | 68 | 1013.7 |
| 20260509213943 | 70 | 220 | 1.0 | 5.0 | 0.00 | 0.00 | 0.00 | 68 | 1013.6 |
| 20260509213842 | 70 | 220 | 2.0 | 6.0 | 0.00 | 0.00 | 0.00 | 67 | 1013.7 |
| 20260509213742 | 70 | 244 | 2.0 | 6.0 | 0.00 | 0.00 | 0.00 | 66 | 1013.7 |
| 20260509213642 | 70 | 250 | 2.0 | 6.0 | 0.00 | 0.00 | 0.00 | 66 | 1013.6 |
| 20260509213542 | 70 | 250 | 2.0 | 6.0 | 0.00 | 0.00 | 0.00 | 66 | 1013.6 |
| 20260509213443 | 70 | 175 | 3.0 | 8.0 | 0.00 | 0.00 | 0.00 | 65 | 1013.6 |
| 20260509213413 | 70 | 213 | 2.0 | 8.0 | 0.00 | 0.00 | 0.00 | 65 | 1013.6 |
| 20260509213402 | 70 | 214 | 3.0 | 8.0 | 0.00 | 0.00 | 0.00 | 65 | 1013.6 |
| 20260509213144 | 70 | 216 | 2.0 | 8.0 | 0.00 | 0.00 | 0.00 | 66 | 1013.6 |
| 20260509213044 | 70 | 216 | 2.0 | 8.0 | 0.00 | 0.00 | 0.00 | 66 | 1013.6 |
| 20260509212940 | 70 | 217 | 2.0 | 8.0 | 0.00 | 0.00 | 0.00 | 66 | 1013.7 |
| 20260509212911 | 70 | 240 | 3.0 | 8.0 | 0.00 | 0.00 | 0.00 | 66 | 1013.6 |
| 20260509212900 | 70 | 219 | 3.0 | 8.0 | 0.00 | 0.00 | 0.00 | 65 | 1013.7 |
| 20260509212639 | 70 | 186 | 3.0 | 8.0 | 0.00 | 0.00 | 0.00 | 66 | 1013.6 |
| 20260509212540 | 70 | 205 | 2.0 | 8.0 | 0.00 | 0.00 | 0.00 | 68 | 1013.7 |
| 20260509212439 | 70 | 248 | 2.0 | 8.0 | 0.00 | 0.00 | 0.00 | 68 | 1013.7 |
| 20260509212341 | 70 | 179 | 2.0 | 8.0 | 0.00 | 0.00 | 0.00 | 67 | 1013.7 |
| 20260509212234 | 70 | 195 | 3.0 | 8.0 | 0.00 | 0.00 | 0.00 | 67 | 1013.7 |
| 20260509212134 | 70 | 195 | 3.0 | 8.0 | 0.00 | 0.00 | 0.00 | 66 | 1013.7 |
| 20260509212034 | 70 | 190 | 3.0 | 8.0 | 0.00 | 0.00 | 0.00 | 67 | 1013.6 |
| 20260509211936 | 70 | 205 | 3.0 | 8.0 | 0.00 | 0.00 | 0.00 | 66 | 1013.6 |
| 20260509211835 | 70 | 173 | 3.0 | 8.0 | 0.00 | 0.00 | 0.00 | 67 | 1013.6 |
| 20260509211736 | 70 | 290 | 3.0 | 7.0 | 0.00 | 0.00 | 0.00 | 67 | 1013.6 |
| 20260509211635 | 70 | 224 | 2.0 | 7.0 | 0.00 | 0.00 | 0.00 | 69 | 1013.5 |
| 20260509211535 | 70 | 225 | 2.0 | 7.0 | 0.00 | 0.00 | 0.00 | 67 | 1013.5 |
| 20260509211435 | 70 | 234 | 2.0 | 7.0 | 0.00 | 0.00 | 0.00 | 64 | 1013.5 |
| 20260509211406 | 70 | 319 | 2.0 | 7.0 | 0.00 | 0.00 | 0.00 | 64 | 1013.5 |
| 20260509211354 | 70 | 217 | 2.0 | 7.0 | 0.00 | 0.00 | 0.00 | 63 | 1013.5 |
| 20260509211134 | 70 | 184 | 2.0 | 6.0 | 0.00 | 0.00 | 0.00 | 65 | 1013.4 |
| 20260509211036 | 70 | 183 | 1.0 | 6.0 | 0.00 | 0.00 | 0.00 | 67 | 1013.4 |
| 20260509210936 | 70 | 202 | 1.0 | 6.0 | 0.00 | 0.00 | 0.00 | 65 | 1013.5 |
| 20260509210834 | 70 | 281 | 1.0 | 8.0 | 0.00 | 0.00 | 0.00 | 67 | 1013.4 |
| 20260509210734 | 70 | 282 | 1.0 | 8.0 | 0.00 | 0.00 | 0.00 | 71 | 1013.5 |
| 20260509210708 | 70 | 199 | 2.0 | 8.0 | 0.00 | 0.00 | 0.00 | 71 | 1013.4 |
| 20260509210658 | 70 | 205 | 2.0 | 8.0 | 0.00 | 0.00 | 0.00 | 71 | 1013.4 |
| 20260509210434 | 70 | 198 | 2.0 | 8.0 | 0.00 | 0.00 | 0.00 | 70 | 1013.4 |
| 20260509210334 | 69 | 171 | 2.0 | 8.0 | 0.00 | 0.00 | 0.00 | 70 | 1013.4 |
| 20260509210326 | 69 | 333 | 3.0 | 6.0 | 0.00 | 0.00 | 0.00 | 68 | 1013.4 |
| 20260509210320 | 69 | 333 | 3.0 | 7.0 | 0.00 | 0.00 | 0.00 | 68 | 1013.2 |
| 20260509210310 | 69 | 167 | 2.0 | 8.0 | 0.00 | 0.00 | 0.00 | 71 | 1013.4 |
| 20260509210209 | 69 | 250 | 3.0 | 8.0 | 0.00 | 0.00 | 0.00 | 70 | 1013.5 |
| 20260509210040 | 69 | 254 | 3.0 | 8.0 | 0.00 | 0.00 | 0.00 | 69 | 1013.4 |
| 20260509210018 | 69 | 222 | 3.0 | 8.0 | 0.00 | 0.00 | 0.00 | 69 | 1013.4 |
| 20260509205634 | 69 | 227 | 3.0 | 7.0 | 0.00 | 0.00 | 0.00 | 69 | 1013.4 |
| 20260509205605 | 68 | 230 | 3.0 | 7.0 | 0.00 | 0.00 | 0.00 | 70 | 1013.2 |
| 20260509205555 | 68 | 229 | 3.0 | 7.0 | 0.00 | 0.00 | 0.00 | 70 | 1013.2 |
| 20260509205336 | 68 | 227 | 3.0 | 7.0 | 0.00 | 0.00 | 0.00 | 69 | 1013.2 |
| 20260509205235 | 68 | 229 | 3.0 | 7.0 | 0.00 | 0.00 | 0.00 | 71 | 1013.4 |
| 20260509205136 | 68 | 227 | 3.0 | 7.0 | 0.00 | 0.00 | 0.00 | 70 | 1013.5 |
| 20260509205034 | 68 | 271 | 3.0 | 7.0 | 0.00 | 0.00 | 0.00 | 69 | 1013.6 |
| 20260509205014 | 69 | 213 | 3.0 | 9.0 | 0.00 | 0.00 | 0.00 | 68 | 1013.6 |
| 20260509204959 | 68 | 232 | 3.0 | 7.0 | 0.00 | 0.00 | 0.00 | 68 | 1013.6 |
| 20260509204736 | 69 | 323 | 3.0 | 9.0 | 0.00 | 0.00 | 0.00 | 67 | 1013.6 |
| 20260509204634 | 69 | 183 | 4.0 | 11.0 | 0.00 | 0.00 | 0.00 | 67 | 1013.6 |
| 20260509204610 | 69 | 205 | 3.0 | 11.0 | 0.00 | 0.00 | 0.00 | 68 | 1013.5 |
| 20260509204558 | 69 | 207 | 3.0 | 11.0 | 0.00 | 0.00 | 0.00 | 67 | 1013.6 |
| 20260509204336 | 69 | 190 | 3.0 | 11.0 | 0.00 | 0.00 | 0.00 | 69 | 1013.5 |
| 20260509204231 | 69 | 184 | 3.0 | 11.0 | 0.00 | 0.00 | 0.00 | 70 | 1013.4 |
| 20260509204132 | 70 | 209 | 3.0 | 11.0 | 0.00 | 0.00 | 0.00 | 67 | 1013.5 |
| 20260509204045 | 70 | 267 | 4.0 | 11.0 | 0.00 | 0.00 | 0.00 | 68 | 1013.4 |
| 20260509203932 | 70 | 218 | 3.0 | 11.0 | 0.00 | 0.00 | 0.00 | 68 | 1013.4 |
| 20260509203828 | 70 | 204 | 3.0 | 11.0 | 0.00 | 0.00 | 0.00 | 67 | 1013.5 |
| 20260509203729 | 70 | 207 | 3.0 | 11.0 | 0.00 | 0.00 | 0.00 | 68 | 1013.5 |
| 20260509203629 | 70 | 226 | 3.0 | 7.0 | 0.00 | 0.00 | 0.00 | 67 | 1013.4 |
| 20260509203526 | 70 | 219 | 3.0 | 7.0 | 0.00 | 0.00 | 0.00 | 68 | 1013.4 |
| 20260509203505 | 70 | 342 | 3.0 | 9.0 | 0.00 | 0.00 | 0.00 | 69 | 1013.4 |
| 20260509203454 | 70 | 229 | 3.0 | 9.0 | 0.00 | 0.00 | 0.00 | 70 | 1013.5 |
| 20260509203227 | 69 | 241 | 3.0 | 9.0 | 0.00 | 0.00 | 0.00 | 69 | 1013.4 |
| 20260509203127 | 69 | 221 | 3.0 | 9.0 | 0.00 | 0.00 | 0.00 | 67 | 1013.5 |
| 20260509203025 | 69 | 211 | 3.0 | 9.0 | 0.00 | 0.00 | 0.00 | 68 | 1013.4 |
| 20260509202957 | 69 | 263 | 3.0 | 9.0 | 0.00 | 0.00 | 0.00 | 70 | 1013.4 |
| 20260509202948 | 69 | 224 | 3.0 | 9.0 | 0.00 | 0.00 | 0.00 | 70 | 1013.4 |
| 20260509202754 | 69 | 221 | 3.0 | 9.0 | 0.00 | 0.00 | 0.00 | 71 | 1013.4 |
| 20260509202743 | 69 | 217 | 3.0 | 9.0 | 0.00 | 0.00 | 0.00 | 70 | 1013.5 |
| 20260509202509 | 69 | 209 | 3.0 | 9.0 | 0.00 | 0.00 | 0.00 | 72 | 1013.5 |
| 20260509202440 | 69 | 178 | 3.0 | 9.0 | 0.00 | 0.00 | 0.00 | 72 | 1013.5 |
| 20260509202430 | 69 | 250 | 3.0 | 9.0 | 0.00 | 0.00 | 0.00 | 71 | 1013.5 |
| 20260509202207 | 69 | 220 | 3.0 | 8.0 | 0.00 | 0.00 | 0.00 | 71 | 1013.4 |
| 20260509202140 | 69 | 228 | 4.0 | 9.0 | 0.00 | 0.00 | 0.00 | 73 | 1013.6 |
| 20260509202129 | 69 | 229 | 3.0 | 9.0 | 0.00 | 0.00 | 0.00 | 73 | 1013.5 |
| 20260509201904 | 68 | 209 | 3.0 | 9.0 | 0.00 | 0.00 | 0.00 | 72 | 1013.6 |
| 20260509201804 | 68 | 186 | 4.0 | 9.0 | 0.00 | 0.00 | 0.00 | 71 | 1013.6 |
| 20260509201732 | 68 | 210 | 3.0 | 9.0 | 0.00 | 0.00 | 0.00 | 72 | 1013.7 |
| 20260509201722 | 68 | 221 | 4.0 | 9.0 | 0.00 | 0.00 | 0.00 | 71 | 1013.7 |
| 20260509201456 | 68 | 190 | 3.0 | 9.0 | 0.00 | 0.00 | 0.00 | 70 | 1013.7 |
| 20260509201427 | 68 | 238 | 3.0 | 11.0 | 0.00 | 0.00 | 0.00 | 70 | 1013.7 |
| 20260509201417 | 68 | 210 | 3.0 | 11.0 | 0.00 | 0.00 | 0.00 | 71 | 1013.7 |
| 20260509201229 | 68 | 219 | 2.0 | 11.0 | 0.00 | 0.00 | 0.00 | 72 | 1013.7 |
| 20260509201217 | 68 | 229 | 2.0 | 11.0 | 0.00 | 0.00 | 0.00 | 71 | 1013.7 |
| 20260509200946 | 69 | 211 | 2.0 | 11.0 | 0.00 | 0.00 | 0.00 | 73 | 1013.6 |
| 20260509200847 | 69 | 194 | 2.0 | 11.0 | 0.00 | 0.00 | 0.00 | 71 | 1013.6 |
| 20260509200748 | 69 | 246 | 2.0 | 11.0 | 0.00 | 0.00 | 0.00 | 71 | 1013.6 |
| 20260509200646 | 69 | 195 | 2.0 | 11.0 | 0.00 | 0.00 | 0.00 | 72 | 1013.7 |
| 20260509200546 | 69 | 236 | 2.0 | 11.0 | 0.00 | 0.00 | 0.00 | 71 | 1013.7 |
| 20260509200442 | 69 | 219 | 2.0 | 11.0 | 0.00 | 0.00 | 0.00 | 71 | 1013.8 |
| 20260509200343 | 69 | 248 | 2.0 | 7.0 | 0.00 | 0.00 | 0.00 | 70 | 1013.8 |
| 20260509200240 | 69 | 282 | 3.0 | 7.0 | 0.00 | 0.00 | 0.00 | 72 | 1013.8 |
| 20260509200210 | 69 | 272 | 3.0 | 9.0 | 0.00 | 0.00 | 0.00 | 72 | 1013.8 |
| 20260509200200 | 69 | 187 | 3.0 | 9.0 | 0.00 | 0.00 | 0.00 | 72 | 1013.8 |
| 20260509195934 | 69 | 232 | 3.0 | 9.0 | 0.00 | 0.00 | 0.00 | 70 | 1013.8 |
| 20260509195832 | 69 | 203 | 3.0 | 9.0 | 0.00 | 0.00 | 0.00 | 71 | 1013.8 |
| 20260509195734 | 69 | 333 | 3.0 | 9.0 | 0.00 | 0.00 | 0.00 | 72 | 1013.8 |
| 20260509195632 | 69 | 206 | 3.0 | 9.0 | 0.00 | 0.00 | 0.00 | 72 | 1013.8 |
| 20260509195532 | 69 | 269 | 4.0 | 9.0 | 0.00 | 0.00 | 0.00 | 72 | 1013.8 |
| 20260509195419 | 69 | 270 | 4.0 | 9.0 | 0.00 | 0.00 | 0.00 | 71 | 1013.8 |
| 20260509195354 | 69 | 211 | 4.0 | 9.0 | 0.00 | 0.00 | 0.00 | 69 | 1013.7 |
| 20260509195343 | 69 | 256 | 4.0 | 9.0 | 0.00 | 0.00 | 0.00 | 70 | 1013.8 |
| 20260509195119 | 69 | 190 | 4.0 | 9.0 | 0.00 | 0.00 | 0.00 | 69 | 1013.8 |
| 20260509195019 | 69 | 205 | 4.0 | 9.0 | 0.00 | 0.00 | 0.00 | 71 | 1013.8 |
| 20260509194913 | 69 | 241 | 4.0 | 9.0 | 0.00 | 0.00 | 0.00 | 69 | 1013.9 |
| 20260509194812 | 69 | 280 | 3.0 | 9.0 | 0.00 | 0.00 | 0.00 | 71 | 1014.0 |
| 20260509194714 | 69 | 218 | 3.0 | 9.0 | 0.00 | 0.00 | 0.00 | 70 | 1014.1 |
| 20260509194646 | 69 | 194 | 3.0 | 9.0 | 0.00 | 0.00 | 0.00 | 73 | 1014.0 |
| 20260509194634 | 69 | 198 | 3.0 | 9.0 | 0.00 | 0.00 | 0.00 | 71 | 1014.0 |
| 20260509194410 | 69 | 180 | 3.0 | 9.0 | 0.00 | 0.00 | 0.00 | 72 | 1014.0 |
| 20260509194309 | 68 | 173 | 3.0 | 9.0 | 0.00 | 0.00 | 0.00 | 71 | 1014.0 |
| 20260509194211 | 68 | 200 | 3.0 | 10.0 | 0.00 | 0.00 | 0.00 | 72 | 1014.0 |
| 20260509194110 | 68 | 113 | 3.0 | 10.0 | 0.00 | 0.00 | 0.00 | 73 | 1014.0 |
| 20260509194007 | 68 | 229 | 4.0 | 10.0 | 0.00 | 0.00 | 0.00 | 70 | 1014.1 |
| 20260509193859 | 68 | 204 | 4.0 | 10.0 | 0.00 | 0.00 | 0.00 | 71 | 1014.1 |
| 20260509193756 | 68 | 293 | 4.0 | 12.0 | 0.00 | 0.00 | 0.00 | 71 | 1014.0 |
| 20260509193655 | 69 | 232 | 4.0 | 12.0 | 0.00 | 0.00 | 0.00 | 70 | 1014.1 |
| 20260509193557 | 69 | 216 | 4.0 | 12.0 | 0.00 | 0.00 | 0.00 | 72 | 1014.1 |
| 20260509193456 | 69 | 222 | 4.0 | 12.0 | 0.00 | 0.00 | 0.00 | 71 | 1014.1 |
| 20260509193425 | 69 | 222 | 4.0 | 12.0 | 0.00 | 0.00 | 0.00 | 71 | 1014.0 |
| 20260509193413 | 69 | 257 | 4.0 | 12.0 | 0.00 | 0.00 | 0.00 | 71 | 1014.0 |
| 20260509193154 | 69 | 232 | 4.0 | 12.0 | 0.00 | 0.00 | 0.00 | 71 | 1014.0 |
| 20260509193055 | 68 | 301 | 4.0 | 12.0 | 0.00 | 0.00 | 0.00 | 71 | 1014.0 |
| 20260509193025 | 68 | 186 | 3.0 | 12.0 | 0.00 | 0.00 | 0.00 | 73 | 1014.0 |
| 20260509193014 | 68 | 198 | 3.0 | 12.0 | 0.00 | 0.00 | 0.00 | 71 | 1014.0 |
| 20260509192756 | 68 | 208 | 3.0 | 14.0 | 0.00 | 0.00 | 0.00 | 72 | 1014.1 |
| 20260509192654 | 68 | 214 | 3.0 | 14.0 | 0.00 | 0.00 | 0.00 | 73 | 1014.0 |
| 20260509192554 | 68 | 196 | 3.0 | 14.0 | 0.00 | 0.00 | 0.00 | 74 | 1014.0 |
| 20260509192527 | 68 | 259 | 4.0 | 14.0 | 0.00 | 0.00 | 0.00 | 72 | 1014.0 |
| 20260509192516 | 68 | 253 | 3.0 | 14.0 | 0.00 | 0.00 | 0.00 | 74 | 1014.0 |
| 20260509192254 | 68 | 224 | 4.0 | 14.0 | 0.00 | 0.00 | 0.00 | 72 | 1014.1 |
| 20260509192155 | 68 | 213 | 4.0 | 14.0 | 0.00 | 0.00 | 0.00 | 72 | 1014.0 |
| 20260509192052 | 68 | 259 | 4.0 | 14.0 | 0.00 | 0.00 | 0.00 | 72 | 1013.9 |
| 20260509191950 | 68 | 216 | 4.0 | 14.0 | 0.00 | 0.00 | 0.00 | 72 | 1014.0 |
| 20260509191851 | 68 | 212 | 4.0 | 14.0 | 0.00 | 0.00 | 0.00 | 71 | 1014.0 |
| 20260509191819 | 68 | 213 | 4.0 | 12.0 | 0.00 | 0.00 | 0.00 | 72 | 1014.0 |
| 20260509191808 | 68 | 198 | 4.0 | 12.0 | 0.00 | 0.00 | 0.00 | 71 | 1013.9 |
| 20260509191542 | 68 | 213 | 4.0 | 12.0 | 0.00 | 0.00 | 0.00 | 72 | 1014.0 |
| 20260509191443 | 68 | 209 | 4.0 | 12.0 | 0.00 | 0.00 | 0.00 | 72 | 1014.0 |
| 20260509191342 | 68 | 219 | 4.0 | 12.0 | 0.00 | 0.00 | 0.00 | 72 | 1014.0 |
| 20260509191242 | 68 | 200 | 4.0 | 12.0 | 0.00 | 0.00 | 0.00 | 73 | 1014.0 |
| 20260509191137 | 68 | 199 | 4.0 | 12.0 | 0.00 | 0.00 | 0.00 | 75 | 1014.0 |
| 20260509191037 | 68 | 189 | 4.0 | 11.0 | 0.00 | 0.00 | 0.00 | 74 | 1014.0 |
| 20260509190939 | 68 | 219 | 4.0 | 11.0 | 0.00 | 0.00 | 0.00 | 74 | 1014.0 |
| 20260509190835 | 69 | 218 | 4.0 | 11.0 | 0.00 | 0.00 | 0.00 | 73 | 1014.1 |
| 20260509190733 | 69 | 196 | 4.0 | 11.0 | 0.00 | 0.00 | 0.00 | 72 | 1014.1 |
| 20260509190701 | 69 | 109 | 3.0 | 11.0 | 0.00 | 0.00 | 0.00 | 74 | 1014.1 |
| 20260509190650 | 69 | 244 | 3.0 | 11.0 | 0.00 | 0.00 | 0.00 | 74 | 1014.1 |
| 20260509190427 | 69 | 238 | 3.0 | 11.0 | 0.00 | 0.00 | 0.00 | 74 | 1014.1 |
| 20260509190325 | 68 | 194 | 3.0 | 11.0 | 0.00 | 0.00 | 0.00 | 74 | 1014.0 |
| 20260509190227 | 68 | 173 | 3.0 | 11.0 | 0.00 | 0.00 | 0.00 | 74 | 1014.1 |
| 20260509190124 | 68 | 168 | 3.0 | 11.0 | 0.00 | 0.00 | 0.00 | 75 | 1014.1 |
| 20260509190026 | 68 | 206 | 3.0 | 11.0 | 0.00 | 0.00 | 0.00 | 75 | 1014.1 |
| 20260509185924 | 68 | 257 | 3.0 | 11.0 | 0.00 | 0.00 | 0.00 | 77 | 1014.1 |
| 20260509185824 | 67 | 245 | 3.0 | 11.0 | 0.00 | 0.00 | 0.00 | 77 | 1014.1 |
| 20260509185720 | 67 | 246 | 3.0 | 11.0 | 0.00 | 0.00 | 0.00 | 76 | 1014.0 |
| 20260509185644 | 67 | 248 | 4.0 | 11.0 | 0.00 | 0.00 | 0.00 | 76 | 1014.0 |
| 20260509185517 | 67 | 186 | 4.0 | 11.0 | 0.00 | 0.00 | 0.00 | 75 | 1014.0 |
| 20260509185509 | 67 | 231 | 4.0 | 11.0 | 0.00 | 0.00 | 0.00 | 75 | 1014.1 |
| 20260509185503 | 67 | 248 | 5.0 | 11.0 | 0.00 | 0.00 | 0.00 | 76 | 1014.1 |
| 20260509185457 | 66 | 205 | 5.0 | 12.0 | 0.00 | 0.00 | 0.00 | 75 | 1014.1 |
| 20260509185444 | 67 | 183 | 4.0 | 11.0 | 0.00 | 0.00 | 0.00 | 75 | 1014.0 |
| 20260509185247 | 67 | 200 | 5.0 | 11.0 | 0.00 | 0.00 | 0.00 | 76 | 1014.1 |
| 20260509184906 | 66 | 219 | 5.0 | 12.0 | 0.00 | 0.00 | 0.00 | 75 | 1014.1 |
| 20260509184805 | 66 | 191 | 5.0 | 12.0 | 0.00 | 0.00 | 0.00 | 75 | 1014.1 |
| 20260509184705 | 66 | 200 | 5.0 | 12.0 | 0.00 | 0.00 | 0.00 | 74 | 1014.1 |
| 20260509184648 | 66 | 237 | 4.0 | 12.0 | 0.00 | 0.00 | 0.00 | 75 | 1014.1 |
| 20260509184629 | 66 | 232 | 5.0 | 12.0 | 0.00 | 0.00 | 0.00 | 76 | 1014.2 |
| 20260509184503 | 66 | 259 | 5.0 | 12.0 | 0.00 | 0.00 | 0.00 | 75 | 1014.1 |
| 20260509184457 | 66 | 213 | 3.0 | 10.0 | 0.00 | 0.00 | 0.00 | 77 | 1013.9 |
| 20260509184451 | 66 | 206 | 3.0 | 10.0 | 0.00 | 0.00 | 0.00 | 76 | 1014.0 |
| 20260509184446 | 66 | 209 | 3.0 | 10.0 | 0.00 | 0.00 | 0.00 | 77 | 1013.9 |
| 20260509184440 | 66 | 194 | 3.0 | 10.0 | 0.00 | 0.00 | 0.00 | 78 | 1013.9 |
| 20260509184430 | 66 | 203 | 4.0 | 12.0 | 0.00 | 0.00 | 0.00 | 77 | 1013.9 |
| 20260509184425 | 66 | 215 | 3.0 | 10.0 | 0.00 | 0.00 | 0.00 | 77 | 1014.0 |
| 20260509184412 | 66 | 166 | 5.0 | 12.0 | 0.00 | 0.00 | 0.00 | 75 | 1014.0 |
| 20260509183549 | 66 | 220 | 3.0 | 10.0 | 0.00 | 0.00 | 0.00 | 76 | 1013.9 |
| 20260509183449 | 66 | 177 | 3.0 | 10.0 | 0.00 | 0.00 | 0.00 | 74 | 1013.9 |
| 20260509183349 | 66 | 200 | 3.0 | 10.0 | 0.00 | 0.00 | 0.00 | 75 | 1014.0 |
| 20260509183248 | 66 | 212 | 3.0 | 9.0 | 0.00 | 0.00 | 0.00 | 75 | 1014.0 |
| 20260509183231 | 67 | 200 | 3.0 | 9.0 | 0.00 | 0.00 | 0.00 | 74 | 1014.0 |
| 20260509183227 | 67 | 175 | 3.0 | 9.0 | 0.00 | 0.00 | 0.00 | 72 | 1014.0 |
| 20260509183221 | 67 | 204 | 3.0 | 9.0 | 0.00 | 0.00 | 0.00 | 72 | 1014.0 |
| 20260509183210 | 66 | 222 | 3.0 | 9.0 | 0.00 | 0.00 | 0.00 | 74 | 1013.9 |
| 20260509183146 | 67 | 230 | 3.0 | 9.0 | 0.00 | 0.00 | 0.00 | 73 | 1014.0 |
| 20260509183032 | 67 | 181 | 2.0 | 9.0 | 0.00 | 0.00 | 0.00 | 75 | 1014.0 |
| 20260509183021 | 67 | 218 | 3.0 | 9.0 | 0.00 | 0.00 | 0.00 | 72 | 1014.0 |
| 20260509182447 | 67 | 204 | 2.0 | 7.0 | 0.00 | 0.00 | 0.00 | 77 | 1014.0 |
| 20260509182345 | 67 | 215 | 2.0 | 7.0 | 0.00 | 0.00 | 0.00 | 76 | 1014.0 |
| 20260509182244 | 67 | 249 | 2.0 | 7.0 | 0.00 | 0.00 | 0.00 | 76 | 1014.0 |
| 20260509182145 | 66 | 212 | 2.0 | 7.0 | 0.00 | 0.00 | 0.00 | 77 | 1014.0 |
| 20260509182044 | 66 | 256 | 2.0 | 8.0 | 0.00 | 0.00 | 0.00 | 77 | 1013.9 |
| 20260509181948 | 66 | 138 | 3.0 | 8.0 | 0.00 | 0.00 | 0.00 | 78 | 1013.9 |
| 20260509181939 | 66 | 288 | 3.0 | 10.0 | 0.00 | 0.00 | 0.00 | 78 | 1013.9 |
| 20260509181922 | 66 | 186 | 3.0 | 10.0 | 0.00 | 0.00 | 0.00 | 76 | 1013.9 |
| 20260509181917 | 66 | 208 | 3.0 | 10.0 | 0.00 | 0.00 | 0.00 | 76 | 1013.8 |
| 20260509181541 | 66 | 48 | 3.0 | 10.0 | 0.00 | 0.00 | 0.00 | 76 | 1013.8 |
| 20260509181506 | 66 | 207 | 3.0 | 10.0 | 0.00 | 0.00 | 0.00 | 76 | 1013.8 |
| 20260509181456 | 66 | 217 | 3.0 | 10.0 | 0.00 | 0.00 | 0.00 | 75 | 1013.8 |
| 20260509181234 | 66 | 195 | 3.0 | 10.0 | 0.00 | 0.00 | 0.00 | 75 | 1013.8 |
| 20260509181133 | 66 | 179 | 3.0 | 10.0 | 0.00 | 0.00 | 0.00 | 74 | 1013.6 |
| 20260509181034 | 66 | 210 | 4.0 | 10.0 | 0.00 | 0.00 | 0.00 | 75 | 1013.7 |
| 20260509180933 | 66 | 232 | 4.0 | 10.0 | 0.00 | 0.00 | 0.00 | 76 | 1013.7 |
| 20260509180826 | 66 | 198 | 4.0 | 9.0 | 0.00 | 0.00 | 0.00 | 80 | 1013.7 |
| 20260509180807 | 65 | 240 | 4.0 | 11.0 | 0.00 | 0.00 | 0.00 | 79 | 1013.7 |
| 20260509180803 | 65 | 141 | 5.0 | 11.0 | 0.00 | 0.00 | 0.00 | 77 | 1013.6 |
| 20260509180750 | 66 | 208 | 4.0 | 11.0 | 0.00 | 0.00 | 0.00 | 80 | 1013.7 |
| 20260509180726 | 65 | 204 | 4.0 | 11.0 | 0.00 | 0.00 | 0.00 | 78 | 1013.7 |
| 20260509180558 | 65 | 204 | 5.0 | 11.0 | 0.00 | 0.00 | 0.00 | 78 | 1013.7 |
| 20260509180248 | 65 | 203 | 4.0 | 11.0 | 0.00 | 0.00 | 0.00 | 77 | 1013.6 |
| 20260509180237 | 65 | 217 | 4.0 | 11.0 | 0.00 | 0.00 | 0.00 | 78 | 1013.6 |
| 20260509180018 | 65 | 185 | 4.0 | 11.0 | 0.00 | 0.00 | 0.00 | 76 | 1013.7 |
| 20260509175947 | 66 | 175 | 4.0 | 10.0 | 0.00 | 0.00 | 0.00 | 77 | 1013.6 |
| 20260509175929 | 65 | 223 | 4.0 | 11.0 | 0.00 | 0.00 | 0.00 | 76 | 1013.6 |
| 20260509175904 | 66 | 219 | 4.0 | 11.0 | 0.00 | 0.00 | 0.00 | 76 | 1013.7 |
| 20260509175736 | 66 | 69 | 4.0 | 10.0 | 0.00 | 0.00 | 0.00 | 77 | 1013.6 |
| 20260509175546 | 66 | 221 | 4.0 | 10.0 | 0.00 | 0.00 | 0.00 | 77 | 1013.6 |
| 20260509175534 | 66 | 250 | 4.0 | 10.0 | 0.00 | 0.00 | 0.00 | 76 | 1013.6 |
| 20260509175337 | 65 | 199 | 4.0 | 10.0 | 0.00 | 0.00 | 0.00 | 78 | 1013.6 |
| 20260509175324 | 65 | 205 | 4.0 | 10.0 | 0.00 | 0.00 | 0.00 | 79 | 1013.6 |
| 20260509175103 | 65 | 206 | 4.0 | 10.0 | 0.00 | 0.00 | 0.00 | 79 | 1013.7 |
| 20260509174955 | 65 | 274 | 4.0 | 10.0 | 0.00 | 0.00 | 0.00 | 79 | 1013.5 |
| 20260509174858 | 64 | 191 | 4.0 | 11.0 | 0.00 | 0.00 | 0.00 | 79 | 1013.5 |
| 20260509174822 | 64 | 238 | 4.0 | 11.0 | 0.00 | 0.00 | 0.00 | 79 | 1013.5 |
| 20260509174816 | 65 | 279 | 4.0 | 11.0 | 0.00 | 0.00 | 0.00 | 78 | 1013.5 |
| 20260509174800 | 64 | 171 | 4.0 | 11.0 | 0.00 | 0.00 | 0.00 | 80 | 1013.5 |
| 20260509174734 | 64 | 217 | 4.0 | 11.0 | 0.00 | 0.00 | 0.00 | 79 | 1013.6 |
| 20260509174352 | 65 | 221 | 4.0 | 11.0 | 0.00 | 0.00 | 0.00 | 79 | 1013.5 |
| 20260509174321 | 65 | 196 | 4.0 | 11.0 | 0.00 | 0.00 | 0.00 | 78 | 1013.5 |
| 20260509174311 | 65 | 209 | 4.0 | 11.0 | 0.00 | 0.00 | 0.00 | 78 | 1013.5 |
| 20260509174046 | 65 | 215 | 4.0 | 11.0 | 0.00 | 0.00 | 0.00 | 78 | 1013.5 |
| 20260509173951 | 65 | 247 | 4.0 | 11.0 | 0.00 | 0.00 | 0.00 | 79 | 1013.5 |
| 20260509173911 | 65 | 223 | 4.0 | 10.0 | 0.00 | 0.00 | 0.00 | 77 | 1013.5 |
| 20260509173900 | 65 | 188 | 4.0 | 10.0 | 0.00 | 0.00 | 0.00 | 79 | 1013.4 |
| 20260509173732 | 65 | 185 | 4.0 | 10.0 | 0.00 | 0.00 | 0.00 | 81 | 1013.6 |
| 20260509173726 | 65 | 201 | 4.0 | 10.0 | 0.00 | 0.00 | 0.00 | 79 | 1013.7 |
| 20260509173721 | 65 | 220 | 4.0 | 10.0 | 0.00 | 0.00 | 0.00 | 80 | 1013.7 |
| 20260509173659 | 65 | 229 | 4.0 | 10.0 | 0.00 | 0.00 | 0.00 | 78 | 1013.5 |
| 20260509173640 | 65 | 222 | 4.0 | 10.0 | 0.00 | 0.00 | 0.00 | 80 | 1013.6 |
| 20260509173131 | 65 | 184 | 4.0 | 10.0 | 0.00 | 0.00 | 0.00 | 80 | 1013.7 |
| 20260509173032 | 65 | 202 | 3.0 | 10.0 | 0.00 | 0.00 | 0.00 | 80 | 1013.7 |
| 20260509172932 | 65 | 166 | 3.0 | 10.0 | 0.00 | 0.00 | 0.00 | 82 | 1013.7 |
| 20260509172832 | 64 | 204 | 4.0 | 10.0 | 0.00 | 0.00 | 0.00 | 82 | 1013.7 |
| 20260509172733 | 64 | 207 | 4.0 | 10.0 | 0.00 | 0.00 | 0.00 | 81 | 1013.7 |
| 20260509172632 | 64 | 209 | 4.0 | 10.0 | 0.00 | 0.00 | 0.00 | 83 | 1013.6 |
| 20260509172533 | 64 | 178 | 4.0 | 9.0 | 0.00 | 0.00 | 0.00 | 82 | 1013.7 |
| 20260509172432 | 64 | 304 | 4.0 | 9.0 | 0.00 | 0.00 | 0.00 | 81 | 1013.6 |
| 20260509172332 | 64 | 221 | 4.0 | 9.0 | 0.00 | 0.00 | 0.00 | 82 | 1013.7 |
| 20260509172231 | 64 | 217 | 4.0 | 9.0 | 0.00 | 0.00 | 0.00 | 83 | 1013.6 |
| 20260509172134 | 63 | 231 | 4.0 | 9.0 | 0.00 | 0.00 | 0.00 | 84 | 1013.6 |
| 20260509172126 | 63 | 194 | 4.0 | 9.0 | 0.00 | 0.00 | 0.00 | 85 | 1013.7 |
| 20260509171933 | 63 | 195 | 4.0 | 9.0 | 0.00 | 0.00 | 0.00 | 82 | 1013.7 |
| 20260509171843 | 62 | 227 | 4.0 | 9.0 | 0.00 | 0.00 | 0.00 | 85 | 1013.7 |
| 20260509171831 | 63 | 213 | 4.0 | 9.0 | 0.00 | 0.00 | 0.00 | 83 | 1013.6 |
| 20260509171813 | 63 | 227 | 4.0 | 9.0 | 0.00 | 0.00 | 0.00 | 84 | 1013.8 |
| 20260509171520 | 62 | 208 | 4.0 | 9.0 | 0.00 | 0.00 | 0.00 | 84 | 1013.7 |
| 20260509171419 | 62 | 245 | 4.0 | 9.0 | 0.00 | 0.00 | 0.00 | 85 | 1013.8 |
| 20260509171319 | 62 | 190 | 4.0 | 9.0 | 0.00 | 0.00 | 0.00 | 84 | 1013.8 |
| 20260509171221 | 62 | 198 | 4.0 | 9.0 | 0.00 | 0.00 | 0.00 | 84 | 1013.7 |
| 20260509171121 | 62 | 319 | 3.0 | 9.0 | 0.00 | 0.00 | 0.00 | 85 | 1013.8 |
| 20260509171014 | 62 | 284 | 3.0 | 9.0 | 0.00 | 0.00 | 0.00 | 87 | 1013.7 |
| 20260509170914 | 62 | 290 | 3.0 | 9.0 | 0.00 | 0.00 | 0.00 | 87 | 1013.8 |
| 20260509170815 | 62 | 201 | 3.0 | 9.0 | 0.00 | 0.00 | 0.00 | 86 | 1013.8 |
| 20260509170713 | 62 | 241 | 3.0 | 9.0 | 0.00 | 0.00 | 0.00 | 86 | 1013.7 |
| 20260509170610 | 62 | 233 | 3.0 | 10.0 | 0.00 | 0.00 | 0.00 | 86 | 1013.8 |
| 20260509170507 | 62 | 246 | 3.0 | 10.0 | 0.00 | 0.00 | 0.00 | 86 | 1013.8 |
| 20260509170409 | 62 | 231 | 3.0 | 10.0 | 0.00 | 0.00 | 0.00 | 86 | 1013.7 |
| 20260509170308 | 62 | 202 | 3.0 | 10.0 | 0.00 | 0.00 | 0.00 | 86 | 1013.8 |
| 20260509170206 | 62 | 189 | 3.0 | 10.0 | 0.00 | 0.00 | 0.00 | 86 | 1013.7 |
| 20260509170106 | 61 | 310 | 3.0 | 10.0 | 0.00 | 0.00 | 0.00 | 87 | 1013.7 |
| 20260509170019 | 61 | 198 | 3.0 | 10.0 | 0.00 | 0.00 | 0.00 | 87 | 1013.7 |
| 20260509170008 | 61 | 203 | 3.0 | 10.0 | 0.00 | 0.00 | 0.00 | 87 | 1013.7 |
| 20260509170001 | 61 | 182 | 4.0 | 11.0 | 0.00 | 0.00 | 0.00 | 87 | 1013.7 |
| 20260509165943 | 61 | 198 | 3.0 | 10.0 | 0.00 | 0.00 | 0.00 | 87 | 1013.7 |
| 20260509165604 | 61 | 226 | 4.0 | 11.0 | 0.00 | 0.00 | 0.00 | 87 | 1013.7 |
| 20260509165503 | 61 | 204 | 3.0 | 11.0 | 0.00 | 0.00 | 0.00 | 87 | 1013.7 |
| 20260509165404 | 61 | 258 | 3.0 | 11.0 | 0.00 | 0.00 | 0.00 | 87 | 1013.7 |
| 20260509165306 | 61 | 206 | 3.0 | 11.0 | 0.00 | 0.00 | 0.00 | 86 | 1013.7 |
| 20260509165214 | 61 | 225 | 3.0 | 11.0 | 0.00 | 0.00 | 0.00 | 86 | 1013.7 |
| 20260509165104 | 61 | 199 | 3.0 | 11.0 | 0.00 | 0.00 | 0.00 | 86 | 1013.8 |
| 20260509165003 | 61 | 256 | 2.0 | 11.0 | 0.00 | 0.00 | 0.00 | 87 | 1013.8 |
| 20260509164902 | 61 | 189 | 2.0 | 11.0 | 0.00 | 0.00 | 0.00 | 87 | 1013.8 |
| 20260509164810 | 61 | 245 | 2.0 | 6.0 | 0.00 | 0.00 | 0.00 | 88 | 1013.7 |
| 20260509164759 | 61 | 277 | 2.0 | 11.0 | 0.00 | 0.00 | 0.00 | 87 | 1013.8 |
| 20260509164753 | 61 | 253 | 2.0 | 8.0 | 0.00 | 0.00 | 0.00 | 87 | 1013.7 |
| 20260509164733 | 61 | 195 | 2.0 | 5.0 | 0.00 | 0.00 | 0.00 | 87 | 1013.7 |
| 20260509164357 | 61 | 253 | 2.0 | 8.0 | 0.00 | 0.00 | 0.00 | 87 | 1013.8 |
| 20260509164329 | 61 | 217 | 3.0 | 8.0 | 0.00 | 0.00 | 0.00 | 87 | 1013.8 |
| 20260509164313 | 61 | 253 | 3.0 | 8.0 | 0.00 | 0.00 | 0.00 | 87 | 1013.8 |
| 20260509164050 | 61 | 193 | 3.0 | 8.0 | 0.00 | 0.00 | 0.00 | 87 | 1013.8 |